<- Previous Day | Today | Next Day ->

All Data for 26 February 2020

 

Time A - D Temp A - D Dew Point A - D Humidity A - D Pressure A - D Wind A - D Wind Dir Gust A - D Rain Rate A - D Rain Total
00:00 4.0 -2.0 65 1005.4 9.8 NW 26.6 0.0 0.0
00:01 4.0 -2.0 65 1005.4 9.8 NW 26.6 0.0 0.0
00:02 4.0 -2.0 65 1005.6 9.8 NW 26.6 0.0 0.0
00:03 4.0 -2.0 65 1005.5 9.8 NW 25.9 0.0 0.0
00:04 4.0 -2.0 65 1005.2 9.8 NW 25.9 0.0 0.0
00:05 4.0 -2.0 65 1005.4 9.8 NW 22.1 0.0 0.0
00:06 3.9 -2.3 64 1005.4 19.0 SW 22.1 0.0 0.0
00:07 3.9 -2.3 64 1005.6 17.4 SW 19.0 0.0 0.0
00:08 3.9 -2.3 64 1005.5 19.0 NW 19.0 0.0 0.0
00:09 3.9 -2.3 64 1005.4 18.3 SW 19.0 0.0 0.0
00:10 3.9 -2.3 64 1005.4 15.9 SW 19.0 0.0 0.0
00:11 3.9 -2.3 64 1005.4 17.4 WNW 19.0 0.0 0.0
00:13 4.0 -2.2 64 1005.6 13.0 SW 19.0 0.0 0.0
00:14 4.0 -2.4 63 1005.4 19.7 SW 27.3 0.0 0.0
00:15 4.0 -2.4 63 1005.5 19.7 NW 27.3 0.0 0.0
00:16 4.0 -2.6 62 1005.5 20.6 NW 27.3 0.0 0.0
00:17 4.0 -2.6 62 1005.4 20.6 SW 27.3 0.0 0.0
00:18 4.1 -2.5 62 1005.4 18.3 WNW 27.3 0.0 0.0
00:19 4.1 -2.5 62 1005.5 19.7 SW 27.3 0.0 0.0
00:20 4.1 -2.5 62 1005.5 21.3 SW 27.3 0.0 0.0
00:21 4.1 -2.5 62 1005.9 22.1 SW 27.3 0.0 0.0
00:22 4.1 -2.5 62 1005.6 21.3 SW 27.3 0.0 0.0
00:23 4.1 -2.5 62 1005.8 23.5 SW 27.3 0.0 0.0
00:24 4.0 -2.6 62 1005.7 21.3 WSW 25.9 0.0 0.0
00:25 4.0 -2.6 62 1005.8 19.7 WNW 25.9 0.0 0.0
00:27 3.8 -2.6 63 1005.6 19.0 SW 25.9 0.0 0.0
00:28 3.7 -2.7 63 1005.6 22.1 NW 25.9 0.0 0.0
00:29 3.7 -2.7 63 1005.8 19.0 W 25.9 0.0 0.0
00:30 3.5 -2.7 64 1005.7 18.3 SW 25.9 0.0 0.0
00:31 3.5 -2.7 64 1005.7 13.6 S 25.9 0.0 0.0
00:32 3.5 -2.7 64 1005.6 15.2 N 25.9 0.0 0.0
00:33 3.5 -2.7 64 1005.7 19.7 SW 24.4 0.0 0.0
00:34 3.4 -2.8 64 1005.6 15.9 NW 24.4 0.0 0.0
00:35 3.4 -2.5 65 1005.5 16.8 SW 24.4 0.0 0.0
00:36 3.4 -2.5 65 1005.5 15.2 SW 24.4 0.0 0.0
00:37 3.4 -2.5 65 1005.6 15.2 SW 24.4 0.0 0.0
00:38 3.4 -2.5 65 1005.5 13.6 SW 24.4 0.0 0.0
00:39 3.4 -2.3 66 1005.6 13.6 NW 24.4 0.0 0.0
00:41 3.5 -2.2 66 1005.6 19.0 WSW 19.7 0.8 0.1
00:42 3.5 -2.2 66 1005.6 22.1 SW 22.1 0.8 0.1
00:43 3.5 -2.2 66 1005.4 16.8 SW 22.1 0.8 0.1
00:44 3.6 -2.4 65 1005.6 15.9 W 22.1 0.8 0.1
00:45 3.6 -2.4 65 1005.5 18.3 NW 22.1 0.0 0.1
00:46 3.7 -2.3 65 1005.5 18.3 SW 22.1 0.0 0.1
00:47 3.7 -2.5 64 1005.5 13.6 W 22.1 0.0 0.1
00:48 3.8 -2.4 64 1005.6 13.0 SW 22.1 0.0 0.1
00:49 3.8 -2.4 64 1005.4 10.7 SW 22.1 0.0 0.1
00:50 3.8 -2.4 64 1005.4 9.8 S 22.1 0.0 0.1
00:51 3.8 -2.4 64 1005.5 21.3 WSW 22.1 0.0 0.1
00:52 3.8 -2.4 64 1005.8 16.8 WSW 22.1 0.0 0.1
00:53 3.9 -2.3 64 1005.7 15.9 WNW 21.3 0.0 0.1
00:55 4.0 -2.2 64 1005.9 18.3 SW 24.4 0.0 0.1
00:56 3.9 -2.1 65 1005.8 18.3 SW 24.4 0.0 0.1
00:57 4.0 -2.0 65 1005.8 22.1 SW 24.4 0.0 0.1
00:58 4.0 -2.2 64 1005.9 24.4 NW 24.4 0.0 0.1
00:59 4.0 -2.2 64 1006.1 16.8 SW 24.4 0.0 0.1
01:00 4.0 -2.2 64 1006.0 25.9 SW 25.9 0.0 0.1
01:01 4.0 -2.2 64 1005.9 25.9 SW 25.9 0.0 0.1
01:02 4.0 -2.2 64 1006.0 14.5 NW 25.9 0.0 0.1
01:03 4.1 -2.1 64 1005.8 14.5 SW 25.9 0.0 0.1
01:04 4.1 -2.1 64 1005.9 9.2 W 25.9 0.0 0.1
01:05 4.1 -2.1 64 1005.8 15.2 NW 25.9 0.0 0.1
01:06 4.1 -2.1 64 1005.9 17.4 SE 25.9 0.0 0.1
01:07 4.1 -2.1 64 1006.1 14.5 SW 25.9 0.0 0.1
01:09 4.0 -2.2 64 1006.0 15.9 W 25.9 0.0 0.1
01:10 4.0 -2.2 64 1005.9 18.3 NW 25.9 0.0 0.1
01:11 4.0 -2.2 64 1005.9 11.4 NW 19.0 0.0 0.1
01:12 4.0 -2.2 64 1005.9 16.8 W 19.0 0.0 0.1
01:13 4.0 -2.2 64 1006.0 15.9 SW 19.0 0.0 0.1
01:14 4.0 -2.2 64 1006.0 14.5 SW 20.6 0.0 0.1
01:15 4.0 -2.2 64 1006.0 17.4 SW 20.6 0.0 0.1
01:16 3.9 -2.3 64 1005.9 20.6 NW 20.6 0.0 0.1
01:17 3.9 -2.3 64 1006.1 16.8 SW 20.6 0.0 0.1
01:18 4.0 -2.2 64 1006.0 17.4 SW 20.6 0.0 0.1
01:19 3.9 -2.5 63 1006.0 20.6 SW 22.1 0.0 0.1
01:20 3.9 -2.5 63 1006.0 18.3 SW 22.1 0.8 0.1
01:21 3.9 -2.5 63 1006.1 24.4 SW 24.4 0.8 0.1
01:23 4.0 -2.6 62 1006.1 17.4 SW 24.4 0.8 0.1
01:24 4.0 -2.6 62 1006.1 15.2 SW 24.4 0.8 0.1
01:25 4.0 -2.6 62 1006.1 18.3 SW 24.4 0.0 0.1
01:26 4.0 -2.6 62 1006.1 18.3 SW 24.4 0.0 0.1
01:27 4.0 -2.6 62 1006.0 20.6 W 24.4 0.0 0.1
01:28 4.0 -2.6 62 1005.9 19.7 SW 24.4 0.0 0.1
01:29 4.0 -2.6 62 1005.9 24.4 S 24.4 0.0 0.1
01:30 4.0 -2.6 62 1006.0 15.9 SW 24.4 0.0 0.1
01:31 4.0 -2.6 62 1006.2 18.3 SW 24.4 0.0 0.1
01:32 4.0 -2.6 62 1006.1 19.7 SW 24.4 0.0 0.1
01:33 4.0 -2.6 62 1006.2 25.9 NW 25.9 0.0 0.1
01:34 4.0 -2.8 61 1006.0 26.6 WNW 26.6 0.0 0.1
01:35 4.0 -2.8 61 1006.2 18.3 WNW 26.6 0.0 0.1
01:37 4.0 -2.8 61 1006.2 25.1 N 26.6 0.0 0.1
01:38 4.0 -2.8 61 1006.4 17.4 NW 26.6 0.0 0.1
01:39 4.0 -2.8 61 1006.4 18.3 S 26.6 0.0 0.1
01:40 4.0 -2.8 61 1006.4 23.5 W 26.6 0.0 0.1
01:41 4.0 -2.8 61 1006.2 19.7 NW 26.6 0.0 0.1
01:42 3.9 -2.9 61 1006.5 20.6 NW 26.6 0.0 0.1
01:43 3.8 -3.0 61 1006.5 14.5 W 26.6 0.0 0.1
01:44 3.8 -3.0 61 1006.5 18.3 NW 25.1 0.0 0.1
01:45 3.8 -3.0 61 1006.4 15.2 NW 25.1 0.0 0.1
01:46 3.7 -3.1 61 1006.4 16.8 W 25.1 0.0 0.1
01:47 3.6 -3.2 61 1006.5 13.6 NW 25.1 0.0 0.1
01:48 3.6 -3.2 61 1006.4 13.6 NW 23.5 0.0 0.1
01:49 3.6 -3.2 61 1006.4 13.0 SW 23.5 0.0 0.1
01:51 3.5 -3.3 61 1006.4 15.2 SW 22.1 0.0 0.1
01:52 3.5 -3.3 61 1006.4 13.0 SW 22.1 0.0 0.1
01:53 3.5 -3.3 61 1006.4 13.0 W 22.1 0.0 0.1
01:54 3.5 -3.1 62 1006.4 13.0 W 22.1 0.0 0.1
01:55 3.5 -3.1 62 1006.5 13.6 N 22.1 0.0 0.1
01:56 3.5 -3.1 62 1006.5 19.0 SW 22.1 0.0 0.1
01:57 3.5 -3.1 62 1006.4 20.6 NW 22.1 0.0 0.1
01:58 3.5 -3.1 62 1006.6 15.9 W 22.1 0.0 0.1
01:59 3.6 -3.0 62 1006.5 19.0 SW 22.1 0.0 0.1
02:00 3.7 -2.9 62 1006.5 13.6 SW 20.6 0.0 0.1
02:01 3.7 -2.9 62 1006.7 13.6 SW 20.6 0.0 0.1
02:02 3.7 -2.9 62 1006.8 14.5 W 20.6 0.0 0.1
02:03 3.8 -2.8 62 1006.8 19.0 S 25.9 0.0 0.1
02:05 3.8 -3.0 61 1006.4 22.1 NE 25.9 0.0 0.1
02:06 3.8 -3.0 61 1006.7 20.6 SW 25.9 0.0 0.1
02:07 3.9 -3.2 60 1006.6 19.0 W 25.9 0.0 0.1
02:08 3.9 -3.2 60 1006.7 19.7 W 25.9 0.0 0.1
02:09 4.0 -3.1 60 1006.8 22.8 NW 25.9 0.0 0.1
02:10 4.0 -3.3 59 1006.8 13.6 N 25.9 0.0 0.1
02:11 4.0 -3.3 59 1006.9 12.1 N 25.9 0.0 0.1
02:12 4.0 -3.3 59 1006.6 19.7 NW 25.9 0.0 0.1
02:13 4.0 -3.3 59 1006.9 18.3 NW 25.9 0.0 0.1
02:14 4.1 -3.2 59 1007.0 14.5 SW 25.9 0.0 0.1
02:15 4.1 -3.4 58 1007.0 20.6 SW 25.9 0.0 0.1
02:16 4.1 -3.4 58 1007.0 15.9 NW 25.9 0.0 0.1
02:17 4.1 -3.4 58 1006.9 16.8 NW 25.9 0.0 0.1
02:19 4.1 -3.6 57 1007.0 19.7 NE 25.9 0.0 0.1
02:20 4.1 -3.6 57 1007.1 22.1 SW 22.1 0.0 0.1
02:21 4.1 -3.6 57 1007.1 16.8 SW 22.1 0.0 0.1
02:22 4.1 -3.6 57 1007.2 17.4 SW 22.1 0.0 0.1
02:23 4.1 -3.6 57 1006.9 19.7 WSW 22.1 0.0 0.1
02:24 4.1 -3.6 57 1007.3 18.3 NW 22.1 0.0 0.1
02:25 4.1 -3.6 57 1007.2 19.0 SW 22.1 0.0 0.1
02:26 4.2 -3.6 57 1007.2 19.7 W 22.1 0.0 0.1
02:27 4.1 -3.9 56 1007.2 24.4 SW 24.4 0.0 0.1
02:28 4.1 -3.9 56 1007.1 15.9 W 24.4 0.0 0.1
02:29 4.1 -3.9 56 1007.2 19.7 NW 24.4 0.0 0.1
02:30 4.1 -3.9 56 1006.9 19.7 W 24.4 0.0 0.1
02:31 4.1 -3.9 56 1007.2 13.0 SE 24.4 0.0 0.1
02:32 4.1 -3.9 56 1007.2 21.3 SE 24.4 0.0 0.1
02:34 4.2 -3.8 56 1007.2 20.6 NW 24.4 0.0 0.1
02:36 4.1 -3.9 56 1007.1 16.8 S 24.4 0.0 0.1
02:37 4.2 -3.8 56 1007.4 19.0 SW 24.4 0.0 0.1
02:39 4.2 -3.8 56 1007.1 21.3 W 22.8 0.0 0.1
02:40 4.1 -3.9 56 1007.2 20.6 NW 22.8 0.0 0.1
02:41 4.1 -3.9 56 1007.2 10.7 W 22.8 0.0 0.1
02:42 4.1 -3.9 56 1007.3 13.6 NNE 22.8 0.0 0.1
02:43 4.1 -3.9 56 1007.1 15.2 NE 22.8 0.0 0.1
02:44 4.1 -3.9 56 1007.3 19.7 WNW 21.3 0.0 0.1
02:45 4.1 -3.9 56 1007.2 15.2 NW 21.3 0.0 0.1
02:46 4.1 -3.9 56 1007.2 19.7 NW 21.3 0.0 0.1
02:47 4.1 -3.6 57 1007.2 13.6 W 21.3 0.0 0.1
02:48 4.1 -3.6 57 1007.3 13.6 NW 21.3 0.0 0.1
02:49 4.1 -3.6 57 1007.3 12.1 W 21.3 0.0 0.1
02:50 4.2 -3.6 57 1007.2 14.5 SW 20.6 0.0 0.1
02:51 4.2 -3.6 57 1007.3 13.6 SW 19.7 0.0 0.1
02:53 4.1 -3.6 57 1007.3 15.9 SW 20.6 0.0 0.1
02:54 4.1 -3.6 57 1007.4 13.6 SW 20.6 0.0 0.1
02:55 4.1 -3.6 57 1007.3 19.7 S 20.6 0.0 0.1
02:56 4.1 -3.6 57 1007.4 16.8 SW 20.6 0.0 0.1
02:57 4.1 -3.6 57 1007.2 19.7 SW 20.6 0.0 0.1
02:58 4.0 -3.7 57 1007.2 19.7 NW 20.6 0.0 0.1
02:59 4.0 -3.7 57 1007.4 19.0 NW 20.6 0.0 0.1
03:00 4.0 -3.7 57 1007.3 18.3 SW 20.6 0.0 0.1
03:01 4.0 -3.7 57 1007.2 18.3 SW 20.6 0.0 0.1
03:02 4.1 -3.6 57 1007.4 19.0 SE 20.6 0.0 0.1
03:03 4.0 -3.7 57 1007.3 15.2 S 21.3 0.0 0.1
03:04 4.0 -3.5 58 1007.2 17.4 NW 21.3 0.0 0.1
03:05 4.0 -3.5 58 1007.5 14.5 SW 21.3 0.0 0.1
03:06 4.1 -3.4 58 1007.3 22.1 SW 22.1 0.0 0.1
03:07 4.1 -3.4 58 1007.4 19.7 NW 22.1 0.0 0.1
03:09 4.1 -3.4 58 1007.4 18.3 N 22.1 0.0 0.1
03:10 4.2 -3.1 59 1007.4 15.2 W 22.1 0.0 0.1
03:11 4.2 -3.1 59 1007.3 12.1 SW 22.1 0.0 0.1
03:12 4.2 -3.1 59 1007.5 23.5 SW 23.5 0.0 0.1
03:13 4.2 -3.1 59 1007.4 22.1 W 23.5 0.0 0.1
03:14 4.2 -3.1 59 1007.6 14.5 W 23.5 0.0 0.1
03:15 4.2 -3.3 58 1007.5 21.3 W 23.5 0.0 0.1
03:16 4.2 -3.3 58 1007.4 16.8 NW 23.5 0.0 0.1
03:17 4.2 -3.3 58 1007.5 15.9 NW 23.5 0.0 0.1
03:18 4.2 -3.3 58 1007.5 18.3 SW 23.5 0.0 0.1
03:19 4.2 -3.3 58 1007.4 12.1 SW 23.5 0.0 0.1
03:20 4.2 -3.3 58 1007.5 9.8 WNW 23.5 0.0 0.1
03:21 4.2 -3.3 58 1007.5 17.4 NW 23.5 0.0 0.1
03:22 4.2 -3.3 58 1007.7 15.9 NW 23.5 0.0 0.1
03:24 4.2 -3.3 58 1007.6 25.1 SSW 25.1 0.0 0.1
03:25 4.2 -3.3 58 1007.6 15.9 W 25.1 0.0 0.1
03:26 4.2 -3.3 58 1007.5 23.5 WNW 25.1 0.0 0.1
03:27 4.2 -3.3 58 1007.7 19.7 WNW 25.1 0.0 0.1
03:28 4.2 -3.3 58 1007.7 13.6 NW 25.1 0.0 0.1
03:29 4.1 -3.4 58 1007.7 13.0 SW 25.1 0.0 0.1
03:30 4.2 -3.3 58 1007.6 17.4 NW 25.1 0.0 0.1
03:31 4.1 -3.4 58 1007.5 13.0 N 25.1 0.0 0.1
03:32 4.1 -3.4 58 1007.7 18.3 NNW 25.1 0.0 0.1
03:33 4.1 -3.4 58 1007.6 12.1 NW 25.1 0.0 0.1
03:34 4.2 -3.3 58 1007.8 15.9 SW 25.1 0.0 0.1
03:35 4.2 -3.6 57 1007.7 22.1 N 23.5 0.0 0.1
03:36 4.2 -3.3 58 1007.7 14.5 N 22.1 0.0 0.1
03:37 4.2 -3.6 57 1007.7 17.4 SW 22.1 0.0 0.1
03:39 4.2 -3.6 57 1007.8 24.4 SW 24.4 0.0 0.1
03:40 4.2 -3.6 57 1007.7 13.6 S 24.4 0.0 0.1
03:41 4.2 -3.6 57 1007.6 16.8 S 24.4 0.0 0.1
03:42 4.2 -3.6 57 1007.6 15.2 NW 24.4 0.0 0.1
03:43 4.2 -3.6 57 1007.6 17.4 WSW 24.4 0.0 0.1
03:44 4.2 -3.6 57 1007.4 19.0 NNW 24.4 0.0 0.1
03:45 4.2 -3.6 57 1007.6 16.8 NNW 24.4 0.0 0.1
03:46 4.2 -3.6 57 1007.6 13.6 SW 24.4 0.0 0.1
03:47 4.2 -3.6 57 1007.6 19.0 NW 24.4 0.0 0.1
03:48 4.3 -3.5 57 1007.8 18.3 SW 24.4 0.0 0.1
03:49 4.2 -3.6 57 1007.7 20.6 SW 24.4 0.0 0.1
03:50 4.3 -3.5 57 1007.7 15.9 SW 22.8 0.0 0.1
03:51 4.3 -3.5 57 1007.7 19.7 W 24.4 0.0 0.1
03:53 4.3 -3.5 57 1007.6 13.6 NW 24.4 0.0 0.1
03:54 4.3 -3.5 57 1007.9 14.5 NW 24.4 0.0 0.1
03:55 4.3 -3.5 57 1007.7 15.9 WNW 24.4 0.0 0.1
03:56 4.3 -3.5 57 1007.9 16.8 NNE 24.4 0.0 0.1
03:57 4.3 -3.5 57 1007.8 16.8 NW 24.4 0.0 0.1
03:58 4.3 -3.5 57 1007.8 13.6 SW 24.4 0.0 0.1
03:59 4.3 -3.5 57 1007.9 16.8 WSW 24.4 0.0 0.1
04:00 4.3 -3.5 57 1007.9 13.0 SW 24.4 0.0 0.1
04:01 4.3 -3.5 57 1007.9 13.0 SW 19.7 0.0 0.1
04:02 4.3 -3.5 57 1007.9 13.0 SW 17.4 0.0 0.1
04:03 4.3 -3.5 57 1007.9 13.0 SW 17.4 0.0 0.1
04:04 4.3 -3.5 57 1008.0 13.0 SW 17.4 0.0 0.1
04:05 4.3 -3.5 57 1007.9 13.0 SW 17.4 0.0 0.1
04:07 4.2 -3.6 57 1007.9 15.9 NW 17.4 0.0 0.1
04:08 4.2 -3.6 57 1007.8 15.2 NW 17.4 0.0 0.1
04:09 4.2 -3.6 57 1008.0 13.6 NW 16.8 0.0 0.1
04:10 4.2 -3.6 57 1007.9 13.0 SW 20.6 0.0 0.1
04:11 4.2 -3.6 57 1007.9 16.8 W 20.6 0.0 0.1
04:12 4.2 -3.6 57 1007.8 15.9 NW 20.6 0.0 0.1
04:13 4.2 -3.6 57 1007.9 13.6 SW 20.6 0.0 0.1
04:14 4.2 -3.6 57 1007.9 9.2 W 20.6 0.0 0.1
04:15 4.2 -3.6 57 1008.0 14.5 W 20.6 0.0 0.1
04:16 4.2 -3.6 57 1008.0 14.5 S 20.6 0.0 0.1
04:17 4.2 -3.3 58 1008.2 16.8 SW 20.6 0.0 0.1
04:18 4.2 -3.3 58 1008.1 18.3 NW 20.6 0.0 0.1
04:20 4.2 -3.3 58 1008.1 15.9 SE 18.3 0.0 0.1
04:21 4.3 -3.5 57 1008.3 10.7 WSW 18.3 0.0 0.1
04:22 4.3 -3.2 58 1008.1 9.8 W 18.3 0.0 0.1
04:23 4.3 -3.2 58 1008.1 11.4 SW 18.3 0.0 0.1
04:24 4.3 -3.2 58 1008.4 12.1 SW 18.3 0.0 0.1
04:25 4.3 -3.2 58 1008.2 9.2 W 18.3 0.0 0.1
04:26 4.3 -3.2 58 1008.2 8.3 W 18.3 0.0 0.1
04:27 4.3 -3.2 58 1008.4 18.3 W 18.3 0.0 0.1
04:28 4.3 -3.2 58 1008.1 15.2 WNW 18.3 0.0 0.1
04:29 4.3 -3.2 58 1008.2 12.1 SW 18.3 0.0 0.1
04:30 4.3 -3.2 58 1008.2 16.8 NW 18.3 0.0 0.1
04:31 4.2 -3.3 58 1008.4 15.2 NE 18.3 0.0 0.1
04:32 4.3 -3.2 58 1008.3 12.1 NW 18.3 0.0 0.1
04:34 4.2 -3.3 58 1008.4 16.8 S 18.3 0.0 0.1
04:35 4.2 -3.3 58 1008.3 15.2 NW 18.3 0.0 0.1
04:36 4.2 -3.3 58 1008.3 16.8 NW 18.3 0.0 0.1
04:37 4.2 -3.3 58 1008.5 15.2 NW 18.3 0.0 0.1
04:38 4.2 -3.3 58 1008.3 10.7 NW 17.4 0.0 0.1
04:39 4.2 -3.3 58 1008.4 10.7 SW 17.4 0.0 0.1
04:40 4.2 -3.6 57 1008.4 13.6 WSW 17.4 0.0 0.1
04:41 4.2 -3.6 57 1008.5 13.6 SW 16.8 0.0 0.1
04:42 4.2 -3.6 57 1008.4 19.7 W 19.7 0.0 0.1
04:43 4.2 -3.6 57 1008.5 15.9 WNW 19.7 0.0 0.1
04:44 4.2 -3.6 57 1008.5 13.6 SE 19.7 0.0 0.1
04:45 4.2 -3.6 57 1008.5 19.7 SW 19.7 0.0 0.1
04:46 4.2 -3.6 57 1008.4 11.4 SW 19.7 0.0 0.1
04:47 4.2 -3.6 57 1008.5 12.1 NW 19.7 0.0 0.1
04:49 4.2 -3.6 57 1008.5 19.7 W 19.7 0.0 0.1
04:50 4.2 -3.6 57 1008.5 18.3 SW 19.7 0.0 0.1
04:51 4.2 -3.6 57 1008.5 10.7 W 19.7 0.0 0.1
04:52 4.2 -3.6 57 1008.5 9.2 W 19.7 0.0 0.1
04:53 4.2 -3.6 57 1008.6 14.5 S 19.7 0.0 0.1
04:54 4.3 -3.5 57 1008.5 13.6 W 19.7 0.0 0.1
04:55 4.3 -3.5 57 1008.6 15.9 NW 19.7 0.0 0.1
04:56 4.3 -3.5 57 1008.4 13.6 SW 19.7 0.0 0.1
04:57 4.3 -3.5 57 1008.6 9.2 SE 19.7 0.0 0.1
04:58 4.3 -3.5 57 1008.7 15.2 S 19.7 0.0 0.1
04:59 4.2 -3.6 57 1008.6 14.5 W 19.7 0.0 0.1
05:00 4.2 -3.6 57 1008.8 13.6 W 18.3 0.0 0.1
05:02 4.2 -3.6 57 1008.7 13.6 W 18.3 0.0 0.1
05:03 4.2 -3.6 57 1008.7 13.6 W 18.3 0.0 0.1
05:04 4.2 -3.6 57 1008.7 13.6 W 18.3 0.0 0.1
05:05 4.2 -3.6 57 1008.8 13.6 W 15.9 0.0 0.1
05:06 4.2 -3.6 57 1008.6 15.9 NW 15.9 0.0 0.1
05:07 4.2 -3.6 57 1008.7 17.4 SW 17.4 0.0 0.1
05:08 4.2 -3.6 57 1008.7 15.9 NW 17.4 0.0 0.1
05:09 4.2 -3.6 57 1008.6 20.6 SW 20.6 0.0 0.1
05:10 4.2 -3.6 57 1008.7 16.8 SW 20.6 0.0 0.1
05:11 4.2 -3.6 57 1008.8 13.0 SW 20.6 0.0 0.1
05:12 4.2 -3.6 57 1008.5 13.6 SW 20.6 0.0 0.1
05:13 4.2 -3.6 57 1008.6 11.4 SW 20.6 0.0 0.1
05:14 4.2 -3.6 57 1008.7 9.8 SW 20.6 0.0 0.1
05:15 4.1 -3.6 57 1008.7 10.7 NW 20.6 0.0 0.1
05:17 4.1 -3.6 57 1008.7 12.1 N 20.6 0.0 0.1
05:18 4.1 -3.6 57 1008.6 19.0 W 20.6 0.0 0.1
05:19 4.1 -3.6 57 1008.7 12.1 S 19.0 0.0 0.1
05:20 4.1 -3.6 57 1008.9 13.6 W 19.0 0.0 0.1
05:21 4.1 -3.6 57 1008.8 9.2 NW 19.0 0.0 0.1
05:22 4.0 -3.7 57 1008.8 11.4 W 19.0 0.0 0.1
05:23 4.1 -3.6 57 1008.9 15.9 SW 19.0 0.0 0.1
05:24 4.0 -3.7 57 1008.9 12.1 SW 19.0 0.0 0.1
05:25 4.0 -3.5 58 1009.0 16.8 SW 19.0 0.0 0.1
05:26 4.1 -3.4 58 1008.9 13.6 SW 19.0 0.0 0.1
05:27 4.1 -3.4 58 1008.9 18.3 NW 19.0 0.0 0.1
05:28 4.1 -3.4 58 1009.0 10.7 SW 19.0 0.0 0.1
05:30 4.1 -3.4 58 1008.9 19.0 WSW 19.0 0.0 0.1
05:31 4.1 -3.4 58 1008.9 13.0 W 19.0 0.0 0.1
05:32 4.1 -3.4 58 1008.9 11.4 SW 19.0 0.0 0.1
05:33 4.1 -3.4 58 1009.0 19.0 NW 19.0 0.0 0.1
05:34 4.2 -3.3 58 1009.0 17.4 SW 19.0 0.0 0.1
05:35 4.2 -3.3 58 1008.9 15.2 NW 19.0 0.0 0.1
05:36 4.2 -3.3 58 1008.9 19.7 NW 19.7 0.0 0.1
05:37 4.1 -3.4 58 1008.9 15.2 NW 19.7 0.0 0.1
05:38 4.2 -3.3 58 1008.9 12.1 N 19.7 0.0 0.1
05:39 4.2 -3.3 58 1008.9 14.5 W 19.7 0.0 0.1
05:40 4.2 -3.3 58 1008.9 19.7 WNW 19.7 0.0 0.1
05:41 4.2 -3.3 58 1009.0 15.9 SW 19.7 0.0 0.1
05:42 4.2 -3.3 58 1009.1 11.4 W 19.7 0.0 0.1
05:44 4.2 -3.1 59 1009.2 14.5 W 19.7 0.0 0.1
05:45 4.2 -3.1 59 1009.1 13.0 NW 19.7 0.0 0.1
05:46 4.2 -3.1 59 1009.0 13.6 NW 19.7 0.0 0.1
05:47 4.2 -3.1 59 1009.1 14.5 E 19.7 0.0 0.1
05:48 4.2 -3.1 59 1009.1 13.0 W 19.7 0.0 0.1
05:49 4.2 -3.1 59 1009.0 15.2 SW 19.7 0.0 0.1
05:50 4.2 -3.1 59 1009.0 14.5 S 19.7 0.0 0.1
05:51 4.2 -3.1 59 1009.2 16.8 SW 17.4 0.0 0.1
05:52 4.2 -3.1 59 1009.2 13.0 SW 17.4 0.0 0.1
05:53 4.3 -3.0 59 1009.3 19.0 W 19.0 0.0 0.1
05:54 4.3 -3.0 59 1009.1 10.7 WNW 19.0 0.0 0.1
05:55 4.3 -3.0 59 1009.1 11.4 NW 19.0 0.0 0.1
05:56 4.3 -3.0 59 1009.1 13.0 SSW 19.0 0.0 0.1
05:58 4.3 -2.8 60 1009.2 19.7 SE 19.7 0.0 0.1
05:59 4.3 -2.8 60 1009.4 11.4 WSW 19.7 0.0 0.1
06:00 4.3 -2.8 60 1009.3 9.2 NW 19.7 0.0 0.1
06:01 4.3 -2.8 60 1009.2 9.2 NW 19.7 0.0 0.1
06:02 4.3 -2.8 60 1009.4 9.2 NW 19.7 0.0 0.1
06:03 4.3 -2.8 60 1009.4 9.2 NW 19.7 0.0 0.1
06:04 4.3 -2.8 60 1009.5 9.2 NW 19.7 0.0 0.1
06:05 4.4 -2.7 60 1009.3 13.6 W 19.7 0.0 0.1
06:06 4.3 -2.8 60 1009.4 18.3 NW 19.7 0.0 0.1
06:07 4.4 -2.7 60 1009.5 12.1 W 19.7 0.0 0.1
06:08 4.4 -2.7 60 1009.5 13.6 S 19.7 0.0 0.1
06:09 4.4 -2.7 60 1009.6 13.0 SW 18.3 0.0 0.1
06:10 4.4 -2.7 60 1009.6 16.8 NW 18.3 0.0 0.1
06:11 4.4 -2.7 60 1009.6 14.5 WSW 18.3 0.0 0.1
06:13 4.4 -2.7 60 1009.7 12.1 SW 18.3 0.0 0.1
06:14 4.4 -2.7 60 1009.6 13.6 W 18.3 0.0 0.1
06:15 4.3 -2.8 60 1009.7 10.7 S 18.3 0.0 0.1
06:16 4.3 -2.8 60 1009.6 15.2 SW 16.8 0.0 0.1
06:17 4.3 -2.8 60 1009.8 11.4 W 16.8 0.0 0.1
06:18 4.3 -2.8 60 1009.8 10.7 W 16.8 0.0 0.1
06:19 4.3 -2.8 60 1009.6 14.5 W 16.8 0.0 0.1
06:20 4.3 -2.8 60 1009.6 15.2 WNW 15.2 0.0 0.1
06:21 4.3 -2.8 60 1009.7 12.1 S 15.2 0.0 0.1
06:22 4.3 -2.8 60 1009.7 10.7 SW 15.2 0.0 0.1
06:23 4.3 -2.8 60 1009.7 17.4 SW 22.8 0.0 0.1
06:24 4.3 -2.8 60 1009.8 15.2 SW 22.8 0.0 0.1
06:26 4.4 -2.7 60 1009.7 15.2 S 22.8 0.0 0.1
06:27 4.4 -2.7 60 1009.7 11.4 NW 22.8 0.0 0.1
06:28 4.4 -2.7 60 1009.8 8.3 SW 22.8 0.0 0.1
06:29 4.4 -2.7 60 1009.6 13.6 NW 22.8 0.0 0.1
06:30 4.4 -2.7 60 1009.7 12.1 SW 22.8 0.0 0.1
06:31 4.3 -2.8 60 1009.7 12.1 W 22.8 0.0 0.1
06:32 4.3 -2.8 60 1009.8 13.6 SW 22.8 0.0 0.1
06:33 4.3 -2.8 60 1009.7 10.7 SW 17.4 0.0 0.1
06:34 4.3 -2.6 61 1009.7 9.8 SW 15.2 0.0 0.1
06:35 4.3 -2.6 61 1009.8 13.0 W 17.4 0.0 0.1
06:36 4.3 -2.6 61 1009.7 13.0 W 17.4 0.0 0.1
06:37 4.3 -2.6 61 1009.9 17.4 W 17.4 0.0 0.1
06:38 4.3 -2.6 61 1009.8 15.9 S 17.4 0.0 0.1
06:40 4.3 -2.6 61 1010.0 19.7 NW 19.7 0.0 0.1
06:41 4.3 -2.6 61 1009.8 19.7 SW 19.7 0.0 0.1
06:42 4.3 -2.6 61 1009.9 10.7 W 19.7 0.0 0.1
06:43 4.3 -2.6 61 1009.7 15.9 NW 19.7 0.0 0.1
06:44 4.3 -2.6 61 1009.7 16.8 S 19.7 0.0 0.1
06:45 4.2 -2.6 61 1009.8 13.0 WSW 19.7 0.0 0.1
06:46 4.2 -2.6 61 1009.8 15.9 SW 19.7 0.0 0.1
06:47 4.2 -2.6 61 1009.9 12.1 W 19.7 0.0 0.1
06:48 4.3 -2.6 61 1010.0 12.1 S 19.7 0.0 0.1
06:49 4.2 -2.6 61 1009.8 12.1 SW 19.7 0.0 0.1
06:50 4.3 -2.3 62 1009.9 18.3 SW 19.7 0.0 0.1
06:51 4.3 -2.3 62 1010.1 13.0 NW 18.3 0.0 0.1
06:52 4.2 -2.4 62 1010.0 15.9 S 18.3 0.0 0.1
06:54 4.2 -2.6 61 1010.0 11.4 NW 18.3 0.0 0.1
06:55 4.2 -2.4 62 1010.0 13.0 NW 18.3 0.0 0.1
06:56 4.2 -2.4 62 1010.1 14.5 WSW 18.3 0.0 0.1
06:57 4.2 -2.4 62 1010.2 8.3 W 18.3 0.0 0.1
06:58 4.2 -2.4 62 1010.0 14.5 WSW 18.3 0.0 0.1
06:59 4.2 -2.4 62 1010.2 16.8 NNW 18.3 0.0 0.1
07:00 4.1 -2.5 62 1010.1 16.8 SW 18.3 0.0 0.1
07:01 4.1 -2.5 62 1010.2 16.8 SW 16.8 0.0 0.1
07:02 4.1 -2.5 62 1010.2 16.8 SW 16.8 0.0 0.1
07:03 4.1 -2.5 62 1010.2 16.8 SW 16.8 0.0 0.1
07:04 4.1 -2.5 62 1010.3 16.8 SW 16.8 0.0 0.1
07:05 4.1 -2.5 62 1010.3 16.8 SW 16.8 0.0 0.1
07:06 4.2 -2.4 62 1010.2 13.6 SW 16.8 0.0 0.1
07:07 4.3 -2.3 62 1010.4 11.4 SW 16.8 0.0 0.1
07:09 4.3 -2.3 62 1010.3 9.8 SW 16.8 0.0 0.1
07:10 4.3 -2.6 61 1010.3 9.8 WNW 16.8 0.0 0.1
07:11 4.3 -2.6 61 1010.4 18.3 NW 18.3 0.0 0.1
07:12 4.3 -2.6 61 1010.4 16.8 NW 18.3 0.0 0.1
07:13 4.3 -2.6 61 1010.3 13.0 SW 18.3 0.0 0.1
07:14 4.3 -2.6 61 1010.2 17.4 SW 18.3 0.0 0.1
07:15 4.3 -2.6 61 1010.4 9.2 SW 18.3 0.0 0.1
07:16 4.3 -2.6 61 1010.4 8.3 NW 18.3 0.0 0.1
07:17 4.3 -2.6 61 1010.4 13.0 NW 18.3 0.0 0.1
07:18 4.3 -2.6 61 1010.5 8.3 NW 18.3 0.0 0.1
07:19 4.4 -2.5 61 1010.5 7.6 NE 18.3 0.0 0.1
07:20 4.3 -2.6 61 1010.4 8.3 NE 18.3 0.0 0.1
07:22 4.3 -2.6 61 1010.5 9.8 N 17.4 0.0 0.1
07:23 4.3 -2.6 61 1010.5 9.8 SW 17.4 0.0 0.1
07:24 4.3 -2.6 61 1010.4 12.1 NW 13.6 0.0 0.1
07:25 4.3 -2.6 61 1010.5 13.0 NW 13.6 0.0 0.1
07:26 4.3 -2.6 61 1010.5 11.4 W 13.6 0.0 0.1
07:27 4.4 -2.5 61 1010.7 14.5 SW 14.5 0.0 0.1
07:28 4.4 -2.5 61 1010.6 9.8 WNW 14.5 0.0 0.1
07:29 4.4 -2.5 61 1010.7 11.4 NW 14.5 0.0 0.1
07:30 4.4 -2.5 61 1010.8 12.1 WNW 14.5 0.0 0.1
07:31 4.4 -2.5 61 1010.8 16.8 NW 16.8 0.0 0.1
07:32 4.4 -2.5 61 1010.7 9.2 NW 16.8 0.0 0.1
07:33 4.5 -2.4 61 1010.8 11.4 W 16.8 0.0 0.1
07:34 4.5 -2.6 60 1010.7 15.9 W 16.8 0.0 0.1
07:36 4.5 -2.6 60 1010.9 14.5 S 16.8 0.0 0.1
07:37 4.5 -2.6 60 1010.9 15.9 S 16.8 0.0 0.1
07:38 4.6 -2.5 60 1010.8 13.0 NW 16.8 0.0 0.1
07:39 4.6 -2.5 60 1010.9 13.0 W 16.8 0.0 0.1
07:40 4.6 -2.5 60 1010.9 11.4 NNW 16.8 0.0 0.1
07:41 4.6 -2.7 59 1010.8 16.8 SW 16.8 0.0 0.1
07:42 4.6 -2.7 59 1011.1 14.5 NW 16.8 0.0 0.1
07:43 4.7 -2.6 59 1011.0 15.9 NW 16.8 0.0 0.1
07:44 4.7 -2.6 59 1011.0 11.4 NW 16.8 0.0 0.1
07:45 4.7 -2.6 59 1011.0 15.9 SW 16.8 0.0 0.1
07:46 4.7 -2.6 59 1011.0 12.1 NW 16.8 0.0 0.1
07:47 4.8 -2.5 59 1011.0 13.6 ENE 16.8 0.0 0.1
07:48 4.8 -2.5 59 1011.0 12.1 N 16.8 0.0 0.1
07:50 4.8 -2.5 59 1011.2 14.5 SE 16.8 0.0 0.1
07:51 4.8 -2.5 59 1011.2 13.6 SW 15.9 0.0 0.1
07:52 4.8 -2.5 59 1011.2 9.8 NW 15.9 0.0 0.1
07:53 4.8 -2.5 59 1011.2 14.5 W 15.9 0.0 0.1
07:54 4.9 -2.4 59 1011.2 14.5 NW 15.9 0.0 0.1
07:55 4.9 -2.4 59 1011.3 16.8 NW 16.8 0.0 0.1
07:56 4.9 -2.4 59 1011.3 10.7 W 16.8 0.0 0.1
07:57 4.9 -2.4 59 1011.4 14.5 SW 16.8 0.0 0.1
07:58 4.9 -2.4 59 1011.2 16.8 SW 16.8 0.0 0.1
07:59 4.9 -2.4 59 1011.3 21.3 WNW 21.3 0.0 0.1
08:00 4.9 -2.4 59 1011.4 13.0 W 21.3 0.0 0.1
08:01 4.9 -2.4 59 1011.3 13.0 W 21.3 0.0 0.1
08:02 4.9 -2.4 59 1011.2 13.0 W 21.3 0.0 0.1
08:04 4.9 -2.4 59 1011.4 13.0 W 21.3 0.0 0.1
08:05 4.9 -2.4 59 1011.4 13.0 W 21.3 0.0 0.1
08:06 5.0 -2.3 59 1011.3 11.4 S 21.3 0.0 0.1
08:07 5.0 -2.3 59 1011.4 11.4 SW 21.3 0.0 0.1
08:08 5.0 -2.3 59 1011.4 13.0 SW 21.3 0.0 0.1
08:09 5.0 -2.3 59 1011.5 12.1 SW 21.3 0.0 0.1
08:10 5.0 -2.3 59 1011.5 9.8 SW 16.8 0.0 0.1
08:11 5.0 -2.3 59 1011.5 9.2 SW 16.8 0.0 0.1
08:12 4.9 -2.2 60 1011.5 15.2 SW 16.8 0.0 0.1
08:13 4.9 -2.4 59 1011.5 13.0 W 16.8 0.0 0.1
08:14 4.9 -2.2 60 1011.3 10.7 SW 16.8 0.0 0.1
08:15 4.9 -2.2 60 1011.4 10.7 SW 16.8 0.0 0.1
08:16 4.9 -2.2 60 1011.3 9.8 NW 16.8 0.0 0.1
08:17 4.9 -2.2 60 1011.6 16.8 WSW 16.8 0.0 0.1
08:19 4.9 -2.2 60 1011.6 14.5 SE 16.8 0.0 0.1
08:20 4.9 -2.2 60 1011.4 11.4 NW 16.8 0.0 0.1
08:21 4.9 -2.2 60 1011.5 10.7 W 16.8 0.0 0.1
08:22 4.9 -2.2 60 1011.5 11.4 W 16.8 0.0 0.1
08:23 4.9 -2.2 60 1011.6 13.0 NW 16.8 0.0 0.1
08:24 4.9 -2.2 60 1011.5 11.4 NW 16.8 0.0 0.1
08:25 5.0 -2.1 60 1011.5 11.4 NW 16.8 0.0 0.1
08:26 5.0 -2.1 60 1011.5 17.4 SW 17.4 0.0 0.1
08:27 5.0 -2.1 60 1011.5 13.0 WNW 17.4 0.0 0.1
08:28 5.0 -2.1 60 1011.6 12.1 NW 17.4 0.0 0.1
08:29 5.0 -2.1 60 1011.4 15.9 N 17.4 0.0 0.1
08:30 5.0 -2.1 60 1011.6 9.8 SW 17.4 0.0 0.1
08:32 5.1 -2.0 60 1011.6 15.9 NW 17.4 0.0 0.1
08:33 5.2 -1.9 60 1011.6 13.0 SW 17.4 0.0 0.1
08:34 5.2 -1.9 60 1011.6 9.8 SW 17.4 0.0 0.1
08:35 5.2 -1.9 60 1011.8 9.2 NW 17.4 0.0 0.1
08:36 5.3 -1.8 60 1011.6 11.4 NW 15.9 0.0 0.1
08:37 5.3 -1.8 60 1011.4 9.8 SW 15.9 0.0 0.1
08:38 5.3 -1.8 60 1011.7 9.2 NW 15.9 0.0 0.1
08:39 5.3 -1.8 60 1011.6 8.3 W 15.9 0.0 0.1
08:40 5.3 -1.8 60 1011.5 13.0 NW 15.9 0.0 0.1
08:41 5.3 -2.1 59 1011.6 10.7 S 15.9 0.0 0.1
08:42 5.3 -2.1 59 1011.8 12.1 NW 15.9 0.0 0.1
08:43 5.3 -2.1 59 1011.7 14.5 NW 14.5 0.0 0.1
08:44 5.3 -2.1 59 1011.7 15.9 NW 15.9 0.0 0.1
08:45 5.3 -2.1 59 1011.7 13.0 S 15.9 0.0 0.1
08:47 5.4 -2.0 59 1011.6 13.6 SW 17.4 0.0 0.1
08:48 5.4 -2.2 58 1011.6 14.5 W 17.4 0.0 0.1
08:49 5.4 -2.2 58 1011.7 8.3 S 17.4 0.0 0.1
08:50 5.4 -2.2 58 1011.7 12.1 W 17.4 0.0 0.1
08:51 5.4 -2.2 58 1011.6 11.4 SW 17.4 0.0 0.1
08:52 5.4 -2.0 59 1011.6 10.7 SW 17.4 0.0 0.1
08:53 5.5 -1.9 59 1011.7 13.6 S 17.4 0.0 0.1
08:54 5.5 -1.9 59 1011.8 13.0 W 17.4 0.0 0.1
08:55 5.5 -1.9 59 1011.7 10.7 NW 17.4 0.0 0.1
08:56 5.6 -1.8 59 1011.9 6.0 SW 15.9 0.0 0.1
08:57 5.6 -1.8 59 1011.7 9.8 NW 14.5 0.0 0.1
08:58 5.6 -1.8 59 1011.7 11.4 S 14.5 0.0 0.1
08:59 5.6 -1.8 59 1011.9 11.4 W 13.6 0.0 0.1
09:01 5.7 -1.7 59 1011.8 12.1 SW 13.6 0.0 0.1
09:02 5.7 -1.7 59 1011.9 12.1 SW 13.6 0.0 0.1
09:03 5.7 -1.7 59 1012.0 12.1 SW 13.0 0.0 0.1
09:04 5.7 -1.7 59 1011.9 12.1 SW 12.1 0.0 0.1
09:05 5.7 -1.7 59 1012.0 12.1 SW 12.1 0.0 0.1
09:06 5.7 -1.9 58 1012.0 14.5 N 14.5 0.0 0.1
09:07 5.7 -1.9 58 1011.9 13.0 SW 14.5 0.0 0.1
09:08 5.7 -1.9 58 1012.0 9.8 SW 14.5 0.0 0.1
09:09 5.7 -1.9 58 1012.1 19.0 N 19.0 0.0 0.1
09:10 5.7 -1.9 58 1012.1 13.6 N 19.0 0.0 0.1
09:11 5.7 -1.9 58 1012.1 13.0 W 19.0 0.0 0.1
09:12 5.7 -1.9 58 1012.0 12.1 N 19.0 0.0 0.1
09:13 5.7 -1.9 58 1011.9 15.2 N 19.0 0.0 0.1
09:15 5.8 -1.8 58 1011.9 13.0 SW 19.0 0.0 0.1
09:16 5.8 -1.8 58 1011.8 13.0 SW 19.0 0.0 0.1
09:17 5.8 -1.8 58 1012.1 13.6 SW 19.0 0.0 0.1
09:18 5.7 -1.9 58 1011.9 14.5 S 19.0 0.0 0.1
09:19 5.8 -2.1 57 1011.9 13.0 NW 15.2 0.0 0.1
09:20 5.8 -2.1 57 1012.0 10.7 W 15.2 0.0 0.1
09:21 5.8 -2.1 57 1012.0 7.6 NW 15.2 0.0 0.1
09:22 5.8 -2.1 57 1012.3 9.2 NW 15.2 0.0 0.1
09:23 5.9 -1.7 58 1012.1 12.1 SW 15.2 0.0 0.1
09:24 5.9 -1.7 58 1012.0 13.6 SW 15.2 0.0 0.1
09:25 6.0 -1.6 58 1012.1 11.4 SW 15.2 0.0 0.1
09:26 6.0 -1.6 58 1012.1 12.1 SW 15.2 0.0 0.1
09:27 6.1 -1.5 58 1012.2 9.8 S 15.2 0.0 0.1
09:29 6.1 -1.5 58 1012.2 9.2 S 15.2 0.0 0.1
09:30 6.1 -1.5 58 1012.2 9.2 NW 15.2 0.0 0.1
09:31 6.1 -1.5 58 1012.3 9.8 NW 15.2 0.0 0.1
09:32 6.1 -1.5 58 1012.4 9.8 W 15.2 0.0 0.1
09:33 6.1 -1.5 58 1012.3 6.9 SW 13.6 0.0 0.1
09:34 6.1 -1.5 58 1012.3 10.7 NW 12.1 0.0 0.1
09:35 6.1 -1.5 58 1012.2 13.0 WNW 13.0 0.0 0.1
09:36 6.1 -1.5 58 1012.2 14.5 SW 14.5 0.0 0.1
09:37 6.2 -1.4 58 1012.3 11.4 SW 14.5 0.0 0.1
09:38 6.2 -1.4 58 1012.2 15.2 W 15.2 0.0 0.1
09:39 6.2 -1.4 58 1012.3 12.1 N 15.9 0.0 0.1
09:40 6.2 -1.4 58 1012.3 15.9 SW 15.9 0.0 0.1
09:41 6.2 -1.7 57 1012.2 21.3 SW 21.3 0.0 0.1
09:42 6.2 -1.7 57 1012.3 19.7 SW 21.3 0.0 0.1
09:44 6.2 -1.7 57 1012.5 15.2 S 21.3 0.0 0.1
09:45 6.3 -1.6 57 1012.4 12.1 NW 21.3 0.0 0.1
09:46 6.3 -1.6 57 1012.4 13.6 SW 21.3 0.0 0.1
09:47 6.3 -1.6 57 1012.5 14.5 SE 21.3 0.0 0.1
09:48 6.3 -1.8 56 1012.5 15.9 SW 21.3 0.0 0.1
09:49 6.3 -1.8 56 1012.4 17.4 NW 21.3 0.0 0.1
09:50 6.3 -1.8 56 1012.4 11.4 NW 21.3 0.0 0.1
09:51 6.3 -1.8 56 1012.3 14.5 S 19.7 0.0 0.1
09:52 6.3 -1.8 56 1012.4 15.2 SW 19.7 0.0 0.1
09:53 6.3 -1.8 56 1012.4 15.9 NW 17.4 0.0 0.1
09:54 6.3 -1.8 56 1012.4 11.4 SW 17.4 0.0 0.1
09:55 6.4 -1.7 56 1012.4 10.7 S 17.4 0.0 0.1
09:56 6.4 -1.7 56 1012.3 9.2 SW 17.4 0.0 0.1
09:58 6.4 -1.7 56 1012.4 19.0 W 19.0 0.0 0.1
09:59 6.4 -1.7 56 1012.3 14.5 SW 19.0 0.0 0.1
10:00 6.4 -2.0 55 1012.3 20.6 SW 20.6 0.0 0.1
10:01 6.4 -2.0 55 1012.3 20.6 SW 20.6 0.0 0.1
10:02 6.4 -2.0 55 1012.4 20.6 SW 20.6 0.0 0.1
10:03 6.4 -2.0 55 1012.3 20.6 SW 20.6 0.0 0.1
10:04 6.4 -2.0 55 1012.2 20.6 SW 20.6 0.0 0.1
10:05 6.4 -2.0 55 1012.4 20.6 SW 20.6 0.0 0.1
10:06 6.5 -1.6 56 1012.2 12.1 W 20.6 0.0 0.1
10:07 6.6 -1.5 56 1012.3 12.1 WSW 20.6 0.0 0.1
10:08 6.6 -1.5 56 1012.3 13.6 WSW 20.6 0.0 0.1
10:09 6.6 -1.5 56 1012.3 15.2 NW 20.6 0.0 0.1
10:10 6.7 -1.5 56 1012.4 15.9 SE 20.6 0.0 0.1
10:12 6.7 -1.5 56 1012.4 16.8 SW 20.6 0.0 0.1
10:13 6.7 -1.5 56 1012.3 12.1 SW 20.6 0.0 0.1
10:14 6.8 -1.4 56 1012.4 15.2 S 20.6 0.0 0.1
10:15 6.8 -1.4 56 1012.5 21.3 W 21.3 0.0 0.1
10:16 6.8 -1.4 56 1012.4 15.9 W 21.3 0.0 0.1
10:17 6.9 -1.5 55 1012.4 13.0 W 21.3 0.0 0.1
10:18 6.9 -1.5 55 1012.4 11.4 W 21.3 0.0 0.1
10:19 7.0 -1.4 55 1012.5 15.2 WSW 21.3 0.0 0.1
10:20 7.0 -1.4 55 1012.4 15.9 NW 21.3 0.0 0.1
10:21 7.0 -1.4 55 1012.3 12.1 SW 21.3 0.0 0.1
10:22 7.0 -1.4 55 1012.4 13.6 SW 21.3 0.0 0.1
10:23 7.1 -1.6 54 1012.4 11.4 W 21.3 0.0 0.1
10:24 7.0 -1.7 54 1012.3 13.0 SW 21.3 0.0 0.1
10:26 7.0 -1.7 54 1012.4 14.5 SW 17.4 0.0 0.1
10:27 6.9 -1.8 54 1012.3 13.0 NW 17.4 0.0 0.1
10:28 6.9 -1.8 54 1012.3 15.9 NW 17.4 0.0 0.1
10:29 6.8 -1.9 54 1012.4 16.8 NW 16.8 0.0 0.1
10:30 6.8 -1.9 54 1012.2 14.5 W 16.8 0.0 0.1
10:31 6.8 -1.6 55 1012.4 10.7 W 16.8 0.0 0.1
10:32 6.8 -1.6 55 1012.4 15.9 SW 16.8 0.0 0.1
10:33 6.8 -1.6 55 1012.3 15.2 NW 16.8 0.0 0.1
10:34 6.9 -1.5 55 1012.3 15.9 SW 16.8 0.0 0.1
10:35 7.0 -1.4 55 1012.3 15.9 SW 16.8 0.0 0.1
10:36 7.0 -1.4 55 1012.3 15.2 S 16.8 0.0 0.1
10:37 7.0 -1.4 55 1012.3 13.0 W 16.8 0.0 0.1
10:38 7.1 -1.3 55 1012.2 15.9 SW 16.8 0.0 0.1
10:39 7.2 -1.2 55 1012.3 18.3 N 18.3 0.0 0.1
10:40 7.2 -1.5 54 1012.3 21.3 SW 21.3 0.0 0.1
10:41 7.3 -1.4 54 1012.2 15.2 SW 21.3 0.0 0.1
10:42 7.4 -1.3 54 1012.4 16.8 S 21.3 0.0 0.1
10:43 7.4 -1.3 54 1012.4 19.0 SW 21.3 0.0 0.1
10:44 7.4 -1.3 54 1012.3 21.3 SW 21.3 0.0 0.1
10:45 7.4 -1.6 53 1012.4 19.0 NW 21.3 0.0 0.1
10:46 7.4 -1.6 53 1012.4 14.5 W 21.3 0.0 0.1
10:47 7.4 -1.6 53 1012.3 17.4 S 21.3 0.0 0.1
10:48 7.4 -1.6 53 1012.4 13.0 SW 21.3 0.0 0.1
10:49 7.4 -1.6 53 1012.4 11.4 S 21.3 0.0 0.1
10:50 7.4 -1.3 54 1012.4 12.1 SW 21.3 0.0 0.1
10:51 7.4 -1.3 54 1012.5 15.2 SW 21.3 0.0 0.1
10:52 7.4 -1.3 54 1012.6 15.2 WNW 21.3 0.0 0.1
10:54 7.4 -1.6 53 1012.6 18.3 NW 20.6 0.0 0.1
10:55 7.4 -1.6 53 1012.6 15.9 WSW 20.6 0.0 0.1
10:56 7.4 -1.6 53 1012.7 15.9 SW 20.6 0.0 0.1
10:57 7.4 -1.8 52 1012.6 21.3 SW 21.3 0.0 0.1
10:58 7.4 -1.8 52 1012.6 19.0 N 21.3 0.0 0.1
10:59 7.4 -1.8 52 1012.7 14.5 N 21.3 0.0 0.1
11:00 7.4 -1.6 53 1012.6 14.5 WNW 21.3 0.0 0.1
11:01 7.4 -1.6 53 1012.8 14.5 WNW 21.3 0.0 0.1
11:02 7.4 -1.6 53 1012.7 14.5 WNW 21.3 0.0 0.1
11:03 7.4 -1.6 53 1012.6 14.5 WNW 21.3 0.0 0.1
11:04 7.4 -1.6 53 1012.7 14.5 WNW 21.3 0.0 0.1
11:05 7.4 -1.6 53 1012.6 14.5 WNW 21.3 0.0 0.1
11:06 7.6 -1.4 53 1012.8 14.5 W 21.3 0.0 0.1
11:08 7.6 -1.4 53 1012.8 10.7 S 19.0 0.0 0.1
11:09 7.6 -1.4 53 1012.7 19.0 SW 19.0 0.0 0.1
11:10 7.7 -1.5 52 1012.8 17.4 WSW 19.0 0.0 0.1
11:11 7.7 -1.5 52 1012.6 19.7 SW 19.7 0.0 0.1
11:12 7.7 -1.5 52 1012.7 16.8 SW 19.7 0.0 0.1
11:13 7.7 -1.8 51 1012.9 21.3 S 21.3 0.0 0.1
11:14 7.7 -1.8 51 1012.7 14.5 NW 21.3 0.0 0.1
11:15 7.6 -1.9 51 1012.8 13.0 WSW 21.3 0.0 0.1
11:16 7.7 -1.8 51 1012.8 15.9 NW 21.3 0.0 0.1
11:17 7.7 -1.8 51 1012.8 13.6 SW 21.3 0.0 0.1
11:18 7.7 -1.5 52 1012.7 9.2 W 21.3 0.0 0.1
11:19 7.7 -1.5 52 1012.8 10.7 SW 21.3 0.0 0.1
11:20 7.8 -1.4 52 1012.7 19.7 NW 21.3 0.0 0.1
11:21 7.8 -1.4 52 1012.7 19.0 S 21.3 0.0 0.1
11:23 7.8 -1.7 51 1012.8 19.7 SW 19.7 0.0 0.1
11:24 7.8 -1.7 51 1012.7 13.6 SW 19.7 0.0 0.1
11:25 7.8 -1.7 51 1012.9 15.2 SW 19.7 0.0 0.1
11:26 7.7 -1.8 51 1012.6 16.8 SW 19.7 0.0 0.1
11:27 7.7 -1.8 51 1012.8 14.5 W 19.7 0.0 0.1
11:28 7.7 -1.8 51 1012.8 17.4 SW 19.7 0.0 0.1
11:29 7.7 -1.8 51 1012.7 13.0 SW 19.7 0.0 0.1
11:30 7.6 -1.9 51 1012.9 11.4 N 19.7 0.0 0.1
11:31 7.6 -1.6 52 1012.9 11.4 SW 19.7 0.0 0.1
11:32 7.6 -1.6 52 1012.8 9.2 W 19.7 0.0 0.1
11:33 7.6 -1.6 52 1013.0 18.3 SW 19.7 0.0 0.1
11:34 7.6 -1.6 52 1012.8 15.9 NW 18.3 0.0 0.1
11:35 7.6 -1.6 52 1012.9 10.7 SW 18.3 0.0 0.1
11:37 7.5 -1.7 52 1012.9 13.0 W 18.3 0.0 0.1
11:38 7.5 -1.7 52 1013.0 15.9 SSW 18.3 0.0 0.1
11:39 7.4 -1.8 52 1013.0 14.5 W 18.3 0.0 0.1
11:40 7.4 -1.8 52 1012.9 13.6 SW 18.3 0.0 0.1
11:41 7.4 -1.8 52 1012.9 10.7 W 18.3 0.0 0.1
11:42 7.4 -1.8 52 1013.0 22.1 WSW 22.1 0.0 0.1
11:43 7.4 -1.8 52 1012.9 14.5 SW 22.1 0.0 0.1
11:44 7.4 -1.8 52 1013.1 12.1 WSW 22.1 0.0 0.1
11:45 7.4 -1.8 52 1013.0 13.6 NW 22.1 0.0 0.1
11:46 7.5 -1.7 52 1012.9 16.8 NW 22.1 0.0 0.1
11:47 7.5 -1.7 52 1012.9 16.8 SW 22.1 0.0 0.1
11:48 7.5 -1.7 52 1012.9 13.6 SW 22.1 0.0 0.1
11:49 7.5 -1.7 52 1012.9 16.8 SW 22.1 0.0 0.1
11:51 7.7 -1.5 52 1012.9 13.0 N 22.1 0.0 0.1
11:52 7.6 -1.6 52 1012.9 14.5 N 22.1 0.0 0.1
11:53 7.7 -1.8 51 1013.0 15.9 SW 19.7 0.0 0.1
11:54 7.7 -1.8 51 1013.0 11.4 NW 19.7 0.0 0.1
11:55 7.7 -1.5 52 1012.9 13.6 SW 19.7 0.0 0.1
11:56 7.8 -1.7 51 1013.0 15.9 W 19.7 0.0 0.1
11:57 7.8 -1.7 51 1012.9 15.2 W 19.7 0.0 0.1
11:58 7.8 -1.7 51 1012.9 13.6 W 19.7 0.0 0.1
11:59 7.9 -1.3 52 1012.9 13.0 SW 19.7 0.0 0.1
12:00 7.9 -1.6 51 1013.1 15.9 SW 19.7 0.0 0.1
12:01 7.9 -1.6 51 1012.9 15.9 SW 15.9 0.0 0.1
12:02 7.9 -1.6 51 1013.0 15.9 SW 15.9 0.0 0.1
12:03 7.9 -1.6 51 1013.0 15.9 SW 15.9 0.0 0.1
12:05 7.9 -1.6 51 1012.9 15.9 SW 15.9 0.0 0.1
12:06 8.0 -1.8 50 1013.0 11.4 NW 15.9 0.0 0.1
12:07 8.0 -1.8 50 1012.9 9.8 SW 15.9 0.0 0.1
12:08 8.0 -2.1 49 1012.9 17.4 SW 17.4 0.0 0.1
12:09 8.0 -2.1 49 1012.9 13.6 S 17.4 0.0 0.1
12:10 8.0 -2.1 49 1012.9 16.8 W 17.4 0.0 0.1
12:11 7.9 -2.2 49 1012.9 12.1 N 17.4 0.0 0.1
12:12 7.9 -2.2 49 1012.9 16.8 WNW 17.4 0.0 0.1
12:13 7.9 -2.2 49 1012.9 13.6 SW 17.4 0.0 0.1
12:14 7.9 -2.2 49 1012.9 17.4 SW 17.4 0.0 0.1
12:15 7.9 -2.4 48 1012.9 15.9 SW 17.4 0.0 0.1
12:16 7.9 -2.4 48 1012.8 15.9 SW 17.4 0.0 0.1
12:17 7.9 -2.2 49 1012.7 16.8 SW 17.4 0.0 0.1
12:19 7.9 -2.2 49 1012.7 15.2 SW 17.4 0.0 0.1
12:20 7.9 -2.4 48 1012.7 16.8 NW 17.4 0.0 0.1
12:21 8.0 -2.1 49 1012.7 13.0 SW 17.4 0.0 0.1
12:22 8.1 -2.0 49 1012.7 13.6 E 17.4 0.0 0.1
12:23 8.1 -2.0 49 1012.6 11.4 W 17.4 0.0 0.1
12:24 8.1 -2.0 49 1012.7 13.0 NW 16.8 0.0 0.1
12:25 8.1 -2.0 49 1012.6 10.7 WNW 16.8 0.0 0.1
12:26 8.2 -1.9 49 1012.5 10.7 SW 16.8 0.0 0.1
12:27 8.2 -1.9 49 1012.6 13.6 NW 16.8 0.0 0.1
12:28 8.2 -2.2 48 1012.8 13.0 SW 16.8 0.0 0.1
12:29 8.3 -1.8 49 1012.5 11.4 NW 16.8 0.0 0.1
12:30 8.3 -2.1 48 1012.5 10.7 S 16.8 0.0 0.1
12:31 8.3 -1.8 49 1012.7 9.2 NW 13.6 0.0 0.1
12:33 8.3 -1.8 49 1012.6 10.7 S 16.8 0.0 0.1
12:34 8.3 -1.8 49 1012.5 15.2 SW 16.8 0.0 0.1
12:35 8.3 -1.8 49 1012.7 13.6 SW 16.8 0.0 0.1
12:36 8.3 -1.8 49 1012.5 11.4 SSW 16.8 0.0 0.1
12:37 8.3 -1.8 49 1012.6 12.1 SW 16.8 0.0 0.1
12:38 8.2 -1.9 49 1012.6 16.8 SW 16.8 0.0 0.1
12:39 8.2 -1.9 49 1012.7 14.5 N 16.8 0.0 0.1
12:40 8.2 -1.9 49 1012.6 17.4 SW 17.4 0.0 0.1
12:41 8.1 -2.0 49 1012.9 17.4 SW 17.4 0.0 0.1
12:42 8.0 -2.1 49 1012.7 10.7 W 17.4 0.0 0.1
12:43 7.8 -2.0 50 1013.0 14.5 W 17.4 0.0 0.1
12:44 7.7 -2.1 50 1012.9 12.1 SW 17.4 0.0 0.1
12:45 7.6 -1.9 51 1012.9 13.0 NW 17.4 0.0 0.1
12:47 7.3 -1.9 52 1012.8 11.4 NNE 17.4 0.0 0.1
12:48 7.2 -2.0 52 1012.8 13.0 SW 17.4 0.0 0.1
12:49 7.1 -1.8 53 1012.8 14.5 SW 17.4 0.0 0.1
12:50 7.0 -1.9 53 1012.7 12.1 S 17.4 0.0 0.1
12:51 7.0 -1.7 54 1012.7 12.1 SW 15.2 0.0 0.1
12:52 7.0 -1.7 54 1012.7 10.7 SSW 15.2 0.0 0.1
12:53 7.0 -1.7 54 1012.4 8.3 W 14.5 0.0 0.1
12:54 7.0 -1.4 55 1012.6 9.8 SW 14.5 0.0 0.1
12:55 7.1 -1.1 56 1012.6 11.4 SW 14.5 0.0 0.1
12:56 7.1 -1.1 56 1012.7 8.3 S 14.5 0.0 0.1
12:57 7.2 -1.0 56 1012.7 15.2 SW 15.2 0.0 0.1
12:58 7.3 -0.9 56 1012.8 12.1 SW 15.2 0.0 0.1
12:59 7.3 -0.7 57 1012.5 13.6 SW 15.2 0.0 0.1
13:01 7.3 -0.7 57 1012.5 13.6 WSW 15.2 0.0 0.1
13:02 7.3 -0.7 57 1012.6 13.6 WSW 15.2 0.0 0.1
13:03 7.3 -0.7 57 1012.5 13.6 WSW 15.2 0.0 0.1
13:04 7.3 -0.7 57 1012.7 13.6 WSW 15.2 0.0 0.1
13:05 7.3 -0.7 57 1012.5 13.6 WSW 15.2 0.0 0.1
13:06 7.3 -0.7 57 1012.7 8.3 WSW 15.2 0.0 0.1
13:07 7.4 -0.6 57 1012.6 7.6 W 15.2 0.0 0.1
13:08 7.5 -0.2 58 1012.6 6.9 W 13.6 0.0 0.1
13:09 7.6 -0.1 58 1012.5 9.8 SW 13.6 0.0 0.1
13:10 7.7 0.0 58 1012.5 8.3 W 13.6 0.0 0.1
13:11 7.8 0.1 58 1012.4 10.7 W 13.6 0.0 0.1
13:12 7.9 0.1 58 1012.4 6.0 SW 13.6 0.0 0.1
13:13 8.1 0.3 58 1012.4 9.2 SW 13.6 0.0 0.1
13:14 8.2 0.4 58 1012.4 9.8 SW 13.6 0.0 0.1
13:16 8.3 0.5 58 1012.5 12.1 SW 12.1 0.0 0.1
13:17 8.3 0.5 58 1012.4 11.4 SW 15.2 0.0 0.1
13:18 8.3 0.3 57 1012.4 7.6 S 15.2 0.0 0.1
13:19 8.2 0.4 58 1012.4 10.7 SW 15.2 0.0 0.1
13:20 8.2 0.2 57 1012.4 12.1 SW 15.2 0.0 0.1
13:21 8.1 0.1 57 1012.4 14.5 SW 15.2 0.0 0.1
13:22 8.1 0.1 57 1012.4 14.5 SW 15.2 0.0 0.1
13:23 8.0 0.0 57 1012.3 13.0 S 15.2 0.0 0.1
13:24 7.9 -0.1 57 1012.4 9.8 S 15.9 0.0 0.1
13:25 7.9 -0.1 57 1012.4 11.4 SW 15.9 0.0 0.1
13:26 7.8 -0.4 56 1012.4 9.2 NW 15.9 0.0 0.1
13:27 7.8 -0.2 57 1012.4 8.3 SW 15.9 0.0 0.1
13:28 7.7 -0.5 56 1012.4 12.1 SW 16.8 0.0 0.1
13:29 7.7 -0.5 56 1012.5 13.6 SW 16.8 0.0 0.1
13:31 7.7 -0.5 56 1012.3 14.5 SW 16.8 0.0 0.1
13:32 7.8 -0.4 56 1012.4 16.8 SW 16.8 0.0 0.1
13:33 8.0 -0.2 56 1012.4 14.5 NW 19.0 0.0 0.1
13:34 8.0 -0.2 56 1012.3 19.0 NW 19.0 0.0 0.1
13:35 8.1 -0.1 56 1012.3 15.2 NW 19.0 0.0 0.1
13:36 8.1 -0.1 56 1012.4 9.8 NW 19.0 0.0 0.1
13:37 8.1 -0.1 56 1012.4 15.2 SW 19.0 0.0 0.1
13:38 8.1 -0.1 56 1012.5 12.1 SW 19.0 0.0 0.1
13:39 8.2 -0.1 56 1012.4 19.7 NNW 19.7 0.0 0.1
13:40 8.2 -0.3 55 1012.4 19.0 NW 19.7 0.0 0.1
13:41 8.1 -0.6 54 1012.4 20.6 NW 20.6 0.0 0.1
13:42 8.1 -0.6 54 1012.3 16.8 SW 20.6 0.0 0.1
13:43 8.1 -0.9 53 1012.3 12.1 NW 20.6 0.0 0.1
13:45 8.0 -1.0 53 1012.4 12.1 WSW 20.6 0.0 0.1
13:46 8.0 -1.0 53 1012.3 14.5 NW 20.6 0.0 0.1
13:47 8.0 -1.0 53 1012.3 13.6 S 20.6 0.0 0.1
13:48 8.0 -1.0 53 1012.3 15.9 NNW 20.6 0.0 0.1
13:49 8.1 -0.9 53 1012.3 19.0 S 20.6 0.0 0.1
13:50 8.1 -0.9 53 1012.3 19.0 S 20.6 0.0 0.1
13:51 8.1 -0.9 53 1012.3 14.5 SW 20.6 0.0 0.1
13:52 8.2 -0.8 53 1012.3 17.4 SW 19.0 0.0 0.1
13:53 8.2 -0.8 53 1012.2 15.9 SW 19.0 0.0 0.1
13:54 8.3 -0.5 54 1012.3 15.9 S 19.0 0.0 0.1
13:55 8.3 -0.5 54 1012.3 17.4 S 19.0 0.0 0.1
13:56 8.4 -0.4 54 1012.1 17.4 SW 19.0 0.0 0.1
13:57 8.5 -0.3 54 1012.2 19.7 NW 19.7 0.0 0.1
13:58 8.5 -0.3 54 1012.3 15.2 S 19.7 0.0 0.1
13:59 8.7 -0.1 54 1012.2 15.2 SW 19.7 0.0 0.1
14:00 8.7 -0.1 54 1012.1 16.8 SW 19.7 0.0 0.1
14:01 8.7 -0.1 54 1012.2 16.8 SW 19.7 0.0 0.1
14:02 8.7 -0.1 54 1012.2 16.8 SW 19.7 0.0 0.1
14:03 8.7 -0.1 54 1012.2 16.8 SW 19.7 0.0 0.1
14:04 8.7 -0.1 54 1012.2 16.8 SW 19.7 0.0 0.1
14:05 8.7 -0.1 54 1012.0 16.8 SW 19.7 0.0 0.1
14:06 8.7 -0.1 54 1012.1 16.8 SW 19.7 0.0 0.1
14:07 8.7 -0.1 54 1012.2 16.8 SW 19.7 0.0 0.1
14:08 8.7 -0.1 54 1012.2 16.8 SW 16.8 0.0 0.1
14:09 8.7 -0.1 54 1012.2 16.8 SW 16.8 0.0 0.1
14:10 8.5 -0.8 52 1012.2 16.8 S 16.8 0.0 0.1
14:11 8.4 -0.9 52 1012.2 14.5 WSW 16.8 0.0 0.1
14:12 8.4 -0.9 52 1012.1 18.3 W 18.3 0.0 0.1
14:14 8.3 -1.0 52 1012.1 13.6 SW 18.3 0.0 0.1
14:15 8.3 -1.0 52 1012.1 13.0 SW 18.3 0.0 0.1
14:16 8.3 -1.2 51 1011.9 15.2 SW 18.3 0.0 0.1
14:17 8.3 -1.0 52 1012.0 12.1 SW 18.3 0.0 0.1
14:18 8.3 -1.0 52 1012.1 15.2 SW 18.3 0.0 0.1
14:19 8.3 -1.0 52 1012.0 13.6 SW 18.3 0.0 0.1
14:20 8.3 -1.0 52 1012.1 21.3 NNW 21.3 0.0 0.1
14:21 8.3 -1.0 52 1012.0 13.0 SW 21.3 0.0 0.1
14:22 8.3 -1.0 52 1012.0 13.6 W 21.3 0.0 0.1
14:23 8.3 -1.0 52 1012.0 15.9 W 21.3 0.0 0.1
14:24 8.2 -1.1 52 1012.0 15.2 SW 21.3 0.0 0.1
14:25 8.2 -1.1 52 1012.0 9.8 S 21.3 0.0 0.1
14:26 8.2 -0.8 53 1012.0 9.8 SW 21.3 0.0 0.1
14:28 8.1 -0.9 53 1012.0 18.3 SW 21.3 0.0 0.1
14:29 8.0 -1.0 53 1012.0 13.6 SW 21.3 0.0 0.1
14:30 8.0 -1.0 53 1012.0 13.6 WSW 18.3 0.0 0.1
14:31 8.0 -1.0 53 1011.9 17.4 S 18.3 0.0 0.1
14:32 8.0 -1.0 53 1011.9 15.2 S 18.3 0.0 0.1
14:33 7.9 -1.1 53 1012.0 19.0 SW 19.0 0.0 0.1
14:34 7.9 -1.1 53 1012.0 19.0 SW 19.0 0.0 0.1
14:35 7.9 -1.1 53 1011.7 20.6 S 20.6 0.0 0.1
14:36 7.9 -1.3 52 1011.9 15.2 SW 20.6 0.0 0.1
14:37 7.9 -1.3 52 1011.7 15.2 S 20.6 0.0 0.1
14:38 7.9 -1.3 52 1011.9 15.2 SW 20.6 0.0 0.1
14:39 7.9 -1.3 52 1011.9 12.1 SW 20.6 0.0 0.1
14:40 7.9 -1.3 52 1011.8 19.0 SW 20.6 0.0 0.1
14:42 7.9 -1.6 51 1011.8 13.6 SW 20.6 0.0 0.1
14:43 7.9 -1.6 51 1011.7 13.6 SW 20.6 0.0 0.1
14:44 7.9 -1.6 51 1011.7 13.0 W 20.6 0.0 0.1
14:45 8.0 -1.5 51 1011.8 15.9 S 19.7 0.0 0.1
14:46 8.0 -1.5 51 1011.7 13.0 SW 19.0 0.0 0.1
14:47 8.0 -1.5 51 1011.7 9.2 SW 19.0 0.0 0.1
14:48 8.1 -1.4 51 1011.7 11.4 SW 19.0 0.0 0.1
14:49 8.1 -1.4 51 1011.6 13.0 SW 19.0 0.0 0.1
14:50 8.2 -1.3 51 1011.6 11.4 NW 19.0 0.0 0.1
14:51 8.2 -1.3 51 1011.7 12.1 SE 18.3 0.0 0.1
14:52 8.3 -1.2 51 1011.5 16.8 S 18.3 0.0 0.1
14:53 8.3 -1.0 52 1011.6 13.0 SW 18.3 0.0 0.1
14:54 8.3 -1.0 52 1011.6 13.0 S 18.3 0.0 0.1
14:56 8.2 -0.8 53 1011.5 14.5 SW 16.8 0.0 0.1
14:57 8.1 -0.9 53 1011.6 12.1 S 16.8 0.0 0.1
14:58 8.1 -0.9 53 1011.5 15.9 SW 16.8 0.0 0.1
14:59 8.0 -1.0 53 1011.6 13.6 SW 16.8 0.0 0.1
15:00 8.0 -0.7 54 1011.6 14.5 SW 16.8 0.0 0.1
15:01 8.0 -0.7 54 1011.4 14.5 SW 16.8 0.0 0.1
15:02 8.0 -0.7 54 1011.4 14.5 SW 16.8 0.0 0.1
15:03 8.0 -0.7 54 1011.6 14.5 SW 15.9 0.0 0.1
15:04 8.0 -0.7 54 1011.6 14.5 SW 15.9 0.0 0.1
15:05 8.0 -0.7 54 1011.5 14.5 SW 15.9 0.0 0.1
15:06 7.8 -0.9 54 1011.6 11.4 SW 15.9 0.0 0.1
15:07 7.7 -1.0 54 1011.6 14.5 SW 15.9 0.0 0.1
15:08 7.7 -1.0 54 1011.6 12.1 SSW 15.9 0.0 0.1
15:09 7.7 -0.8 55 1011.5 13.0 SW 14.5 0.0 0.1
15:11 7.6 -0.9 55 1011.5 15.9 SW 19.0 0.0 0.1
15:12 7.6 -0.9 55 1011.5 13.6 WSW 19.0 0.0 0.1
15:13 7.5 -1.0 55 1011.6 11.4 SW 19.0 0.0 0.1
15:14 7.6 -0.9 55 1011.4 16.8 SW 19.0 0.0 0.1
15:15 7.6 -0.9 55 1011.5 13.6 NW 19.0 0.0 0.1
15:16 7.6 -0.9 55 1011.5 19.0 S 19.0 0.0 0.1
15:17 7.7 -0.8 55 1011.5 15.2 S 19.0 0.0 0.1
15:18 7.7 -0.8 55 1011.5 15.2 S 19.0 0.0 0.1
15:19 7.8 -0.7 55 1011.4 13.0 SW 19.0 0.0 0.1
15:20 8.0 -0.2 56 1011.4 14.5 SW 19.0 0.0 0.1
15:21 8.0 -0.2 56 1011.5 13.6 SW 19.0 0.0 0.1
15:22 8.1 -0.4 55 1011.5 14.5 SW 19.0 0.0 0.1
15:23 8.1 -0.4 55 1011.4 17.4 W 19.0 0.0 0.1
15:24 8.1 -0.4 55 1011.6 13.6 WSW 19.0 0.0 0.1
15:26 8.0 -0.7 54 1011.4 15.9 SW 17.4 0.0 0.1
15:27 7.9 -0.8 54 1011.6 13.0 SW 17.4 0.0 0.1
15:28 7.8 -0.9 54 1011.6 11.4 SW 17.4 0.0 0.1
15:29 7.7 -1.0 54 1011.5 11.4 S 17.4 0.0 0.1
15:30 7.7 -1.0 54 1011.4 13.0 SW 17.4 0.0 0.1
15:31 7.6 -1.1 54 1011.5 15.9 SW 17.4 0.0 0.1
15:32 7.6 -1.1 54 1011.5 15.2 SW 17.4 0.0 0.1
15:33 7.6 -1.1 54 1011.6 17.4 S 17.4 0.0 0.1
15:34 7.5 -1.2 54 1011.7 18.3 S 18.3 0.0 0.1
15:35 7.5 -1.2 54 1011.6 9.2 SW 18.3 0.0 0.1
15:36 7.5 -1.2 54 1011.6 18.3 SW 18.3 0.0 0.1
15:37 7.5 -1.0 55 1011.6 14.5 SW 18.3 0.0 0.1
15:38 7.5 -1.0 55 1011.7 12.1 SW 18.3 0.0 0.1
15:40 7.6 -0.9 55 1011.6 17.4 NW 18.3 0.0 0.1
15:41 7.7 -0.8 55 1011.4 14.5 SW 18.3 0.0 0.1
15:42 7.7 -0.5 56 1011.4 16.8 SW 18.3 0.0 0.1
15:43 7.7 -0.5 56 1011.4 13.0 WSW 18.3 0.0 0.1
15:44 7.8 -0.4 56 1011.5 8.3 S 18.3 0.0 0.1
15:45 7.9 -0.3 56 1011.5 15.2 SW 18.3 0.0 0.1
15:46 7.9 -0.3 56 1011.5 15.2 SW 18.3 0.0 0.1
15:47 7.9 -0.3 56 1011.4 10.7 SW 17.4 0.0 0.1
15:48 8.0 -0.2 56 1011.4 12.1 SW 17.4 0.0 0.1
15:49 8.1 -0.1 56 1011.5 14.5 SW 17.4 0.0 0.1
15:50 8.1 -0.1 56 1011.4 11.4 SW 17.4 0.0 0.1
15:51 8.1 -0.1 56 1011.3 13.6 SW 16.8 0.0 0.1
15:52 8.1 -0.1 56 1011.4 12.1 WNW 16.8 0.0 0.1
15:53 8.1 -0.1 56 1011.4 10.7 SW 15.9 0.0 0.1
15:54 8.2 -0.1 56 1011.4 9.8 SW 15.9 0.0 0.1
15:55 8.2 -0.1 56 1011.4 13.6 SW 15.9 0.0 0.1
15:56 8.2 -0.1 56 1011.4 15.9 WSW 15.9 0.0 0.1
15:57 8.3 0.0 56 1011.4 10.7 SW 15.9 0.0 0.1
15:58 8.3 0.0 56 1011.2 12.1 SW 15.9 0.0 0.1
15:59 8.4 0.1 56 1011.2 15.2 SW 15.9 0.0 0.1
16:00 8.3 -0.2 55 1011.0 15.2 S 15.9 0.0 0.1
16:01 8.3 -0.2 55 1011.2 15.2 S 15.9 0.0 0.1
16:02 8.3 -0.2 55 1011.2 15.2 SW 15.9 0.0 0.1
16:03 8.3 -0.2 55 1011.2 12.1 SW 15.9 0.0 0.1
16:04 8.3 -0.2 55 1011.2 12.1 SW 15.9 0.0 0.1
16:05 8.3 -0.2 55 1011.1 9.8 S 15.9 0.0 0.1
16:06 8.2 -0.3 55 1011.1 9.8 SW 15.9 0.0 0.1
16:07 8.3 -0.2 55 1011.2 14.5 SW 15.2 0.0 0.1
16:09 8.2 -0.3 55 1011.1 10.7 W 15.2 0.0 0.1
16:10 8.2 -0.3 55 1011.2 13.0 SW 15.2 0.0 0.1
16:11 8.2 -0.3 55 1011.1 13.0 SW 15.2 0.0 0.1
16:12 8.2 -0.6 54 1011.0 10.7 SW 14.5 0.0 0.1
16:13 8.2 -0.3 55 1011.0 10.7 S 14.5 0.0 0.1
16:14 8.2 -0.3 55 1011.0 10.7 S 14.5 0.0 0.1
16:15 8.2 -0.3 55 1011.1 13.0 SW 14.5 0.0 0.1
16:16 8.2 -0.3 55 1011.2 12.1 SW 14.5 0.0 0.1
16:17 8.2 -0.3 55 1011.1 11.4 S 13.0 0.0 0.1
16:18 8.3 -0.2 55 1011.2 9.2 SW 13.0 0.0 0.1
16:19 8.3 -0.2 55 1011.1 8.3 S 13.0 0.0 0.1
16:20 8.3 -0.2 55 1011.1 11.4 S 14.5 0.0 0.1
16:21 8.4 -0.1 55 1011.0 12.1 W 14.5 0.0 0.1
16:22 8.3 -0.2 55 1011.1 10.7 NW 14.5 0.0 0.1
16:23 8.4 -0.1 55 1010.9 9.8 SW 14.5 0.0 0.1
16:24 8.3 -0.2 55 1011.0 9.2 SW 14.5 0.0 0.1
16:25 8.2 -0.3 55 1011.0 13.6 NE 14.5 0.0 0.1
16:26 8.1 -0.4 55 1010.9 12.1 SW 14.5 0.0 0.1
16:27 8.1 -0.4 55 1010.9 8.3 W 14.5 0.0 0.1
16:28 8.0 -0.5 55 1010.9 8.3 SW 14.5 0.0 0.1
16:29 8.0 -0.5 55 1010.8 8.3 NW 14.5 0.0 0.1
16:30 7.9 -0.6 55 1010.9 8.3 S 13.6 0.0 0.1
16:31 7.8 -0.4 56 1010.9 7.6 S 13.6 0.0 0.1
16:32 7.7 -0.5 56 1011.0 13.6 S 13.6 0.0 0.1
16:33 7.7 -0.5 56 1011.0 13.0 S 13.6 0.0 0.1
16:34 7.6 -0.6 56 1010.9 11.4 S 13.6 0.0 0.1
16:35 7.5 -0.7 56 1010.9 9.8 SW 13.6 0.0 0.1
16:37 7.3 -0.7 57 1010.8 8.3 SW 13.6 0.0 0.1
16:38 7.3 -0.7 57 1010.9 9.2 S 13.6 0.0 0.1
16:39 7.2 -0.7 57 1010.9 9.8 W 13.6 0.0 0.1
16:40 7.2 -0.7 57 1010.9 8.3 SW 13.6 0.0 0.1
16:41 7.1 -0.8 57 1010.8 6.9 SW 13.6 0.0 0.1
16:42 7.1 -0.8 57 1010.8 6.9 SW 13.6 0.0 0.1
16:43 7.1 -0.8 57 1010.9 7.6 SW 13.0 0.0 0.1
16:44 7.1 -0.8 57 1010.8 9.2 S 11.4 0.0 0.1
16:45 7.0 -0.7 58 1010.8 9.2 S 11.4 0.0 0.1
16:46 7.0 -0.7 58 1010.9 9.2 S 9.8 0.0 0.1
16:47 7.0 -0.7 58 1010.6 6.9 SW 9.8 0.0 0.1
16:48 7.0 -0.7 58 1010.8 7.6 SW 9.8 0.0 0.1
16:49 7.0 -0.7 58 1010.9 6.9 SW 9.8 0.0 0.1
16:51 6.9 -0.6 59 1010.8 7.6 SW 9.2 0.0 0.1
16:52 6.9 -0.6 59 1010.9 9.2 SW 9.2 0.0 0.1
16:53 6.8 -0.6 59 1010.7 6.9 SW 9.2 0.0 0.1
16:54 6.8 -0.6 59 1010.8 7.6 NW 9.2 0.0 0.1
16:55 6.8 -0.6 59 1010.8 6.0 SW 9.2 0.0 0.1
16:56 6.8 -0.6 59 1010.7 7.6 SSW 9.2 0.0 0.1
16:57 6.7 -0.7 59 1010.7 9.2 WNW 9.2 0.0 0.1
16:58 6.7 -0.7 59 1010.8 9.8 S 9.8 0.0 0.1
16:59 6.6 -0.8 59 1010.8 7.6 SW 9.8 0.0 0.1
17:00 6.6 -0.8 59 1010.8 8.3 SW 9.8 0.0 0.1
17:01 6.6 -0.8 59 1010.7 8.3 SW 9.8 0.0 0.1
17:02 6.6 -0.8 59 1010.6 8.3 SW 9.8 0.0 0.1
17:03 6.6 -0.8 59 1010.6 8.3 SW 9.8 0.0 0.1
17:05 6.4 -0.8 60 1010.6 6.9 SW 9.8 0.0 0.1
17:06 6.3 -0.9 60 1010.6 9.2 S 9.8 0.0 0.1
17:07 6.3 -0.9 60 1010.7 6.9 SW 9.8 0.0 0.1
17:08 6.2 -1.0 60 1010.7 8.3 S 9.2 0.0 0.1
17:09 6.2 -0.8 61 1010.7 6.9 S 9.2 0.0 0.1
17:10 6.2 -0.8 61 1010.7 6.9 S 9.2 0.0 0.1
17:11 6.2 -0.8 61 1010.6 6.9 S 9.2 0.0 0.1
17:12 6.1 -0.9 61 1010.5 6.0 SW 9.2 0.0 0.1
17:13 6.1 -0.9 61 1010.6 6.0 S 9.2 0.0 0.1
17:14 6.1 -0.9 61 1010.7 6.0 SW 9.2 0.0 0.1
17:15 6.1 -0.9 61 1010.7 6.0 SW 9.2 0.0 0.1
17:16 6.0 -0.7 62 1010.5 8.3 S 9.2 0.0 0.1
17:17 6.0 -0.7 62 1010.6 8.3 S 8.3 0.0 0.1
17:18 6.0 -0.7 62 1010.7 6.0 SE 8.3 0.0 0.1
17:20 6.0 -0.7 62 1010.5 5.4 S 8.3 0.0 0.1
17:21 6.0 -0.5 63 1010.6 7.6 SW 8.3 0.0 0.1
17:22 5.9 -0.6 63 1010.6 7.6 SW 8.3 0.0 0.1
17:23 5.9 -0.6 63 1010.6 7.6 S 8.3 0.0 0.1
17:24 5.9 -0.6 63 1010.6 6.9 SW 8.3 0.0 0.1
17:25 5.9 -0.6 63 1010.6 6.9 S 8.3 0.0 0.1
17:26 5.9 -0.6 63 1010.6 6.9 S 8.3 0.0 0.1
17:27 5.9 -0.6 63 1010.6 6.0 S 8.3 0.0 0.1
17:28 5.9 -0.6 63 1010.6 4.5 S 7.6 0.0 0.1
17:29 5.9 -0.6 63 1010.5 4.5 S 7.6 0.0 0.1
17:30 5.9 -0.4 64 1010.7 8.3 S 8.3 0.0 0.1
17:31 5.9 -0.4 64 1010.6 6.9 S 8.3 0.0 0.1
17:32 5.8 -0.5 64 1010.5 6.9 S 8.3 0.0 0.1
17:34 5.8 -0.5 64 1010.5 6.9 SW 8.3 0.0 0.1
17:35 5.8 -0.5 64 1010.4 6.0 S 8.3 0.0 0.1
17:36 5.8 -0.5 64 1010.5 6.9 SW 8.3 0.0 0.1
17:37 5.7 -0.6 64 1010.4 5.4 S 8.3 0.0 0.1
17:38 5.7 -0.6 64 1010.5 6.0 SW 8.3 0.0 0.1
17:39 5.7 -0.4 65 1010.5 6.0 S 8.3 0.0 0.1
17:40 5.7 -0.4 65 1010.4 8.3 S 8.3 0.0 0.1
17:41 5.7 -0.4 65 1010.5 9.8 S 9.8 0.0 0.1
17:42 5.7 -0.4 65 1010.5 6.0 SW 9.8 0.0 0.1
17:43 5.7 -0.4 65 1010.4 6.9 SW 9.8 0.0 0.1
17:44 5.7 -0.4 65 1010.3 5.4 SW 9.8 0.0 0.1
17:45 5.7 -0.4 65 1010.4 6.9 S 9.8 0.0 0.1
17:46 5.7 -0.4 65 1010.4 7.6 SW 9.8 0.0 0.1
17:48 5.6 -0.5 65 1010.3 5.4 S 9.8 0.0 0.1
17:49 5.6 -0.5 65 1010.4 7.6 S 9.8 0.0 0.1
17:50 5.6 -0.2 66 1010.4 6.0 SW 9.8 0.0 0.1
17:51 5.6 -0.5 65 1010.4 6.0 S 7.6 0.0 0.1
17:52 5.6 -0.2 66 1010.4 6.9 SW 7.6 0.0 0.1
17:53 5.6 -0.2 66 1010.2 6.9 S 8.3 0.0 0.1
17:54 5.6 -0.2 66 1010.2 6.9 S 8.3 0.0 0.1
17:55 5.5 -0.3 66 1010.3 6.9 S 8.3 0.0 0.1
17:56 5.5 -0.3 66 1010.2 6.0 SW 8.3 0.0 0.1
17:57 5.5 -0.3 66 1010.2 5.4 S 8.3 0.0 0.1
17:58 5.5 -0.3 66 1010.3 5.4 S 8.3 0.0 0.1
17:59 5.5 -0.3 66 1010.3 6.0 S 8.3 0.0 0.1
18:00 5.4 -0.4 66 1010.4 6.0 SW 8.3 0.0 0.1
18:02 5.4 -0.4 66 1010.2 6.0 SW 8.3 0.0 0.1
18:03 5.4 -0.4 66 1010.3 6.0 SW 6.9 0.0 0.1
18:04 5.4 -0.4 66 1010.2 6.0 SW 6.9 0.0 0.1
18:05 5.3 -0.5 66 1010.4 3.8 S 6.9 0.0 0.1
18:06 5.3 -0.5 66 1010.3 4.5 S 6.9 0.0 0.1
18:07 5.3 -0.5 66 1010.3 3.1 S 6.9 0.0 0.1
18:08 5.3 -0.5 66 1010.2 3.1 S 6.9 0.0 0.1
18:09 5.3 -0.5 66 1010.3 3.8 SSE 6.9 0.0 0.1
18:10 5.3 -0.5 66 1010.3 4.5 SE 6.0 0.0 0.1
18:11 5.3 -0.3 67 1010.2 6.0 S 6.0 0.0 0.1
18:12 5.2 -0.4 67 1010.1 3.8 S 6.0 0.0 0.1
18:13 5.2 -0.4 67 1010.1 3.8 S 6.0 0.0 0.1
18:14 5.2 -0.4 67 1010.1 3.8 S 6.0 0.0 0.1
18:16 5.2 -0.4 67 1010.0 4.5 S 6.0 0.0 0.1
18:17 5.1 -0.5 67 1010.1 3.8 S 6.0 0.0 0.1
18:18 5.1 -0.5 67 1010.2 3.1 SW 6.0 0.0 0.1
18:19 5.1 -0.5 67 1010.0 5.4 S 6.0 0.0 0.1
18:20 5.1 -0.5 67 1010.1 3.8 S 6.0 0.0 0.1
18:21 5.1 -0.5 67 1010.0 3.1 S 6.0 0.0 0.1
18:22 5.1 -0.5 67 1010.0 3.1 S 5.4 0.0 0.1
18:23 5.1 -0.3 68 1009.9 3.1 SSW 5.4 0.0 0.1
18:24 5.1 -0.3 68 1009.9 3.8 S 5.4 0.0 0.1
18:25 5.1 -0.3 68 1010.0 4.5 S 5.4 0.0 0.1
18:26 5.1 -0.3 68 1009.9 4.5 S 5.4 0.0 0.1
18:27 5.1 -0.3 68 1009.8 6.0 S 6.0 0.0 0.1
18:28 5.1 -0.3 68 1009.9 3.8 S 6.0 0.0 0.1
18:30 5.1 -0.3 68 1010.1 3.8 S 6.0 0.0 0.1
18:31 5.1 -0.3 68 1010.1 5.4 S 6.0 0.0 0.1
18:32 5.1 -0.3 68 1010.0 5.4 S 6.0 0.0 0.1
18:33 5.1 -0.3 68 1010.1 5.4 WSW 6.0 0.0 0.1
18:34 5.1 -0.3 68 1010.1 6.0 SE 6.0 0.0 0.1
18:35 5.1 -0.3 68 1010.0 3.8 SE 6.0 0.0 0.1
18:36 5.1 -0.3 68 1009.9 6.0 S 6.0 0.0 0.1
18:37 5.1 -0.3 68 1010.0 6.0 S 6.0 0.0 0.1
18:38 5.1 -0.3 68 1010.0 5.4 S 6.0 0.0 0.1
18:39 5.1 -0.1 69 1010.3 5.4 S 6.0 0.0 0.1
18:40 5.1 -0.1 69 1010.1 4.5 S 6.0 0.0 0.1
18:41 5.1 -0.1 69 1010.1 6.0 SW 6.0 0.0 0.1
18:42 5.2 0.0 69 1010.1 4.5 S 6.0 0.0 0.1
18:44 5.2 0.0 69 1009.9 4.5 S 6.0 0.0 0.1
18:45 5.2 0.0 69 1009.9 4.5 SW 6.0 0.0 0.1
18:46 5.2 0.0 69 1009.9 4.5 W 6.0 0.0 0.1
18:47 5.2 0.0 69 1009.9 3.8 SW 6.0 0.0 0.1
18:48 5.2 0.0 69 1009.8 3.8 SE 6.0 0.0 0.1
18:49 5.2 0.0 69 1009.9 4.5 S 6.0 0.0 0.1
18:50 5.2 0.0 69 1009.9 4.5 S 6.0 0.0 0.1
18:51 5.2 0.0 69 1009.9 3.8 S 6.0 0.0 0.1
18:52 5.2 0.0 69 1009.9 4.5 SW 4.5 0.0 0.1
18:53 5.2 0.0 69 1009.9 5.4 S 5.4 0.0 0.1
18:54 5.2 0.0 69 1009.9 4.5 S 5.4 0.0 0.1
18:55 5.2 0.0 69 1009.8 4.5 S 5.4 0.0 0.1
18:56 5.2 0.0 69 1009.8 3.8 S 5.4 0.0 0.1
18:58 5.2 0.0 69 1009.8 4.5 S 5.4 0.0 0.1
18:59 5.2 0.0 69 1009.8 4.5 S 5.4 0.0 0.1
19:00 5.1 -0.1 69 1009.7 4.5 S 5.4 0.0 0.1
19:01 5.1 -0.1 69 1009.8 4.5 S 5.4 0.0 0.1
19:02 5.1 -0.1 69 1009.8 4.5 S 5.4 0.0 0.1
19:03 5.1 -0.1 69 1009.7 4.5 S 5.4 0.0 0.1
19:04 5.1 -0.1 69 1009.8 4.5 S 5.4 0.0 0.1
19:05 5.1 -0.1 69 1009.5 4.5 S 5.4 0.0 0.1
19:06 5.1 0.1 70 1009.5 4.5 S 5.4 0.0 0.1
19:07 5.1 0.1 70 1009.5 3.8 S 5.4 0.0 0.1
19:08 5.1 0.1 70 1009.7 3.8 S 5.4 0.0 0.1
19:09 5.1 0.1 70 1009.5 3.1 S 5.4 0.0 0.1
19:10 5.1 0.1 70 1009.6 2.2 S 5.4 0.0 0.1
19:11 5.1 0.1 70 1009.6 3.1 S 5.4 0.0 0.1
19:12 5.1 0.1 70 1009.4 3.8 SE 5.4 0.0 0.1
19:13 5.1 0.1 70 1009.4 3.1 SE 5.4 0.0 0.1
19:14 5.0 0.0 70 1009.3 3.1 SE 5.4 0.0 0.1
19:15 5.0 0.0 70 1009.3 4.5 E 5.4 0.0 0.1
19:16 5.0 0.0 70 1009.5 3.8 SE 5.4 0.0 0.1
19:17 5.0 0.0 70 1009.4 3.8 SE 5.4 0.0 0.1
19:18 5.0 0.0 70 1009.4 3.1 SE 4.5 0.0 0.1
19:19 5.0 0.0 70 1009.3 3.1 SE 4.5 0.0 0.1
19:20 5.0 0.0 70 1009.4 3.8 SE 4.5 0.0 0.1
19:21 5.0 0.0 70 1009.3 3.1 SE 4.5 0.0 0.1
19:22 5.0 0.0 70 1009.5 3.8 SE 4.5 0.0 0.1
19:23 5.0 0.0 70 1009.4 2.2 SE 4.5 0.0 0.1
19:24 5.0 0.0 70 1009.3 1.6 E 4.5 0.0 0.1
19:25 5.0 0.2 71 1009.3 2.2 SE 4.5 0.0 0.1
19:26 5.0 0.2 71 1009.2 2.2 SE 3.8 0.0 0.1
19:27 5.0 0.2 71 1009.4 2.2 E 3.8 0.0 0.1
19:29 5.0 0.2 71 1009.3 3.1 SE 3.8 0.0 0.1
19:30 5.0 0.2 71 1009.3 3.1 SE 3.8 0.0 0.1
19:31 5.0 0.2 71 1009.2 3.1 E 3.8 0.0 0.1
19:32 5.0 0.2 71 1009.2 2.2 SE 3.1 0.0 0.1
19:33 5.0 0.2 71 1009.2 3.1 SE 3.8 0.0 0.1
19:34 5.0 0.2 71 1009.2 3.1 SE 3.8 0.0 0.1
19:35 5.0 0.2 71 1009.0 2.2 SE 3.8 0.0 0.1
19:36 5.0 0.2 71 1009.1 3.8 SE 3.8 0.0 0.1
19:37 5.0 0.2 71 1009.1 2.2 SE 3.8 0.0 0.1
19:38 5.0 0.2 71 1009.1 3.1 SE 3.8 0.0 0.1
19:39 5.0 0.4 72 1009.1 2.2 S 3.8 0.0 0.1
19:40 5.0 0.2 71 1009.1 2.2 SE 3.8 0.0 0.1
19:41 5.0 0.2 71 1008.9 2.2 SE 3.8 0.0 0.1
19:43 5.0 0.2 71 1008.9 2.2 SE 3.8 0.0 0.1
19:44 5.0 0.4 72 1009.1 2.2 SE 3.8 0.0 0.1
19:45 5.0 0.4 72 1008.9 2.2 E 3.8 0.0 0.1
19:46 5.0 0.4 72 1008.9 3.8 S 3.8 0.0 0.1
19:47 5.0 0.4 72 1008.9 3.8 SE 3.8 0.0 0.1
19:48 5.0 0.4 72 1008.9 3.8 SE 3.8 0.0 0.1
19:49 5.0 0.4 72 1008.9 3.8 SE 3.8 0.0 0.1
19:50 5.0 0.4 72 1008.9 3.8 S 3.8 0.0 0.1
19:51 4.9 0.3 72 1008.8 3.1 S 3.8 0.0 0.1
19:52 5.0 0.4 72 1008.9 3.1 S 3.8 0.0 0.1
19:53 5.0 0.4 72 1008.7 3.8 S 3.8 0.0 0.1
19:54 5.0 0.4 72 1008.8 3.1 S 3.8 0.0 0.1
19:55 5.0 0.4 72 1008.7 3.1 S 3.8 0.0 0.1
19:57 5.0 0.4 72 1008.8 3.1 S 3.8 0.0 0.3
19:58 5.0 0.4 72 1008.7 3.1 S 3.8 1.5 0.3
19:59 5.0 0.6 73 1008.6 3.8 S 3.8 1.5 0.3
20:00 5.0 0.4 72 1008.6 3.8 SE 3.8 2.3 0.3
20:01 5.0 0.4 72 1008.7 3.8 SE 3.8 2.3 0.3
20:02 5.0 0.4 72 1008.6 3.8 SE 3.8 2.3 0.3
20:03 5.0 0.4 72 1008.6 3.8 SE 3.8 0.8 0.3
20:04 5.0 0.4 72 1008.6 3.8 SE 3.8 0.8 0.3
20:05 5.0 0.4 72 1008.5 3.8 SE 3.8 0.0 0.3
20:06 5.1 0.7 73 1008.5 3.1 S 3.8 3.0 0.6
20:07 5.0 0.6 73 1008.6 4.5 S 4.5 3.0 0.6
20:08 5.1 0.7 73 1008.4 9.8 S 9.8 3.8 0.6
20:09 5.1 0.7 73 1008.6 6.9 S 9.8 3.8 0.6
20:11 5.1 0.7 73 1008.5 7.6 S 9.8 0.8 0.7
20:12 5.1 0.7 73 1008.5 6.0 SW 9.8 1.5 0.7
20:13 5.1 0.9 74 1008.5 10.7 S 10.7 0.8 0.7
20:14 5.1 0.9 74 1008.4 6.9 SW 10.7 0.8 0.7
20:15 5.2 0.9 74 1008.4 8.3 S 10.7 0.8 0.8
20:16 5.2 0.9 74 1008.5 10.7 S 10.7 1.5 0.8
20:17 5.2 0.9 74 1008.4 10.7 SW 10.7 0.8 0.8
20:18 5.2 0.9 74 1008.4 8.3 SW 10.7 0.8 0.8
20:19 5.2 0.9 74 1008.3 9.2 SW 10.7 0.8 0.8
20:20 5.2 0.9 74 1008.3 7.6 S 10.7 0.8 0.8
20:21 5.2 0.9 74 1008.4 9.2 S 10.7 0.0 0.8
20:22 5.2 0.9 74 1008.3 9.8 S 10.7 0.8 0.8
20:23 5.2 0.9 74 1008.3 9.2 S 10.7 0.8 0.8
20:25 5.1 0.9 74 1008.2 7.6 SW 10.7 0.8 0.8
20:26 5.1 0.9 74 1008.2 7.6 S 10.7 0.8 0.9
20:27 5.1 1.0 75 1008.3 12.1 SE 12.1 0.8 0.9
20:28 5.1 0.9 74 1008.1 9.8 SE 12.1 0.8 0.9
20:29 5.1 1.0 75 1008.1 7.6 SW 12.1 0.8 0.9
20:30 5.1 1.0 75 1008.1 7.6 SW 12.1 0.8 0.9
20:31 5.1 1.0 75 1008.1 7.6 SW 12.1 0.8 0.9
20:32 5.0 0.9 75 1008.1 6.0 S 12.1 0.0 0.9
20:33 5.0 0.9 75 1008.1 6.0 S 12.1 0.0 0.9
20:34 5.0 0.9 75 1008.0 5.4 SE 12.1 0.0 0.9
20:35 5.0 0.9 75 1008.1 6.0 S 12.1 0.0 0.9
20:36 5.0 0.9 75 1007.9 6.9 S 12.1 0.0 0.9
20:37 5.0 0.9 75 1007.9 5.4 SE 12.1 0.0 0.9
20:39 5.0 0.9 75 1007.9 3.8 S 7.6 0.8 0.9
20:40 5.0 0.9 75 1007.8 5.4 S 7.6 0.8 0.9
20:41 4.9 0.8 75 1007.7 3.8 SE 6.9 0.8 0.9
20:42 4.9 0.8 75 1007.7 4.5 SE 6.9 0.8 0.9
20:43 4.9 0.8 75 1007.6 4.5 S 6.9 0.8 0.9
20:44 4.9 0.8 75 1007.6 3.8 S 6.9 0.0 0.9
20:45 4.9 0.8 75 1007.6 3.8 S 6.9 0.0 0.9
20:46 4.9 0.8 75 1007.7 3.1 S 6.9 0.0 0.9
20:47 4.9 0.8 75 1007.3 3.8 S 6.0 0.0 0.9
20:48 4.9 0.8 75 1007.3 3.8 SE 6.0 0.0 0.9
20:49 4.9 0.8 75 1007.3 3.8 SE 6.0 0.0 0.9
20:50 4.9 0.8 75 1007.1 3.8 SE 6.0 0.0 0.9
20:51 4.9 0.8 75 1007.3 3.8 SE 6.0 0.0 0.9
20:53 4.9 0.8 75 1007.2 3.8 SE 4.5 0.0 0.9
20:54 4.9 0.8 75 1007.2 6.0 SE 6.0 0.0 0.9
20:55 4.9 0.8 75 1006.9 4.5 SE 6.0 0.0 0.9
20:56 4.9 0.8 75 1006.9 5.4 SE 6.0 0.0 0.9
20:57 4.9 0.8 75 1007.0 5.4 SE 6.0 0.0 0.9
20:58 4.9 0.8 75 1006.9 5.4 SE 6.0 0.0 0.9
20:59 4.9 0.8 75 1006.9 5.4 SE 6.0 0.0 0.9
21:00 4.9 1.0 76 1006.9 5.4 SE 6.0 0.0 0.9
21:01 4.9 1.0 76 1006.9 5.4 SE 6.0 0.0 0.9
21:02 4.9 1.0 76 1006.9 5.4 SE 6.0 0.0 0.9
21:03 4.9 1.0 76 1006.9 5.4 SE 6.0 0.0 0.9
21:04 4.9 1.0 76 1006.7 5.4 SE 6.0 0.0 0.9
21:05 4.9 1.0 76 1006.8 5.4 SE 5.4 0.0 0.9
21:07 5.0 1.1 76 1006.8 3.8 SE 5.4 1.5 1.1
21:08 5.0 1.1 76 1006.7 6.9 SE 6.9 1.5 1.1
21:09 5.0 1.1 76 1006.6 4.5 E 6.9 1.5 1.1
21:10 5.0 1.1 76 1006.6 6.0 SE 6.9 1.5 1.1
21:11 5.0 1.1 76 1006.7 4.5 SE 6.9 0.0 1.1
21:12 5.0 1.1 76 1006.6 4.5 SE 6.9 0.0 1.1
21:13 5.0 1.1 76 1006.7 4.5 SE 6.9 0.8 1.1
21:14 5.0 1.1 76 1006.6 5.4 SE 6.9 0.8 1.1
21:15 5.0 1.1 76 1006.6 5.4 ENE 6.9 0.8 1.1
21:16 5.0 1.1 76 1006.5 5.4 E 6.9 0.8 1.1
21:17 5.0 1.1 76 1006.5 6.9 SE 6.9 0.8 1.1
21:18 5.0 1.1 76 1006.5 6.9 ESE 6.9 0.8 1.2
21:19 5.0 1.1 76 1006.6 6.0 SE 6.9 0.8 1.2
21:20 5.0 1.1 76 1006.4 4.5 SE 6.9 0.8 1.2
21:21 5.0 1.1 76 1006.3 4.5 ESE 6.9 1.5 1.3
21:23 5.0 1.3 77 1006.4 3.8 SE 6.9 0.8 1.3
21:24 5.0 1.1 76 1006.2 4.5 SE 6.9 0.8 1.3
21:25 5.0 1.1 76 1006.2 3.8 SE 6.9 0.8 1.3
21:26 5.0 1.3 77 1006.0 4.5 SE 6.9 0.8 1.3
21:27 5.0 1.3 77 1006.3 6.0 SE 6.9 0.8 1.3
21:28 5.0 1.3 77 1006.2 4.5 SE 6.0 0.8 1.3
21:29 5.0 1.3 77 1006.0 4.5 SE 6.0 0.8 1.3
21:30 5.0 1.3 77 1006.2 5.4 SE 6.0 0.8 1.3
21:31 5.0 1.3 77 1006.2 4.5 SE 6.0 0.0 1.3
21:32 5.0 1.3 77 1006.1 6.0 SE 6.9 0.8 1.4
21:33 5.0 1.3 77 1006.1 6.9 SE 6.9 0.8 1.4
21:34 5.0 1.3 77 1006.1 8.3 SE 8.3 0.8 1.4
21:35 5.0 1.3 77 1006.1 6.0 E 8.3 0.8 1.4
21:36 5.0 1.3 77 1005.8 6.0 SE 8.3 0.8 1.4
21:38 4.9 1.2 77 1005.7 6.0 E 8.3 0.8 1.4
21:39 5.0 1.3 77 1005.8 6.0 SE 8.3 0.8 1.4
21:40 5.0 1.3 77 1005.7 5.4 SE 8.3 0.8 1.4
21:41 5.0 1.3 77 1005.7 5.4 E 8.3 1.5 1.5
21:42 5.0 1.3 77 1005.7 7.6 E 8.3 0.8 1.5
21:43 5.0 1.3 77 1005.6 5.4 SE 8.3 0.8 1.5
21:44 4.9 1.4 78 1005.6 6.9 SE 7.6 1.5 1.6
21:45 5.0 1.3 77 1005.6 6.0 SE 7.6 1.5 1.6
21:46 5.0 1.3 77 1005.8 6.0 SE 7.6 0.8 1.6
21:47 5.0 1.5 78 1005.4 6.9 S 7.6 0.8 1.6
21:48 5.0 1.5 78 1005.4 6.9 SE 7.6 1.5 1.6
21:49 5.0 1.5 78 1005.3 3.8 SE 7.6 0.8 1.6
21:50 5.0 1.5 78 1005.4 5.4 SE 7.6 0.8 1.6
21:51 5.0 1.5 78 1005.3 6.0 SE 7.6 0.8 1.6
21:53 5.0 1.5 78 1005.2 6.0 E 7.6 0.8 1.7
21:54 5.0 1.5 78 1005.2 7.6 E 7.6 0.8 1.8
21:55 5.0 1.5 78 1005.3 7.6 SE 7.6 1.5 1.8
21:56 5.0 1.5 78 1005.1 5.4 SE 7.6 1.5 1.8
21:57 5.0 1.5 78 1005.0 5.4 SE 7.6 1.5 1.8
21:58 5.0 1.5 78 1005.0 8.3 ESE 8.3 1.5 1.8
21:59 5.0 1.5 78 1005.0 8.3 ESE 8.3 1.5 1.8
22:00 5.0 1.5 78 1005.0 7.6 E 8.3 1.5 1.9
22:01 5.0 1.5 78 1004.9 7.6 E 8.3 1.5 1.9
22:02 5.0 1.5 78 1004.8 7.6 E 8.3 0.8 1.9
22:03 5.0 1.5 78 1004.6 7.6 E 8.3 0.8 1.9
22:04 5.0 1.5 78 1004.6 7.6 E 8.3 0.8 1.9
22:05 5.0 1.5 78 1004.6 7.6 E 8.3 0.0 1.9
22:07 5.1 1.8 79 1004.4 8.3 SE 9.2 1.5 2.0
22:08 5.1 1.8 79 1004.4 7.6 ESE 9.2 1.5 2.0
22:09 5.1 1.8 79 1004.3 9.2 E 9.2 2.3 2.1
22:10 5.1 1.8 79 1004.4 7.6 SE 9.2 2.3 2.1
22:11 5.1 1.8 79 1004.3 8.3 SE 9.2 0.8 2.1
22:12 5.1 1.8 79 1004.3 8.3 SE 9.2 1.5 2.1
22:13 5.1 1.8 79 1004.4 6.0 SE 9.2 1.5 2.1
22:14 5.1 1.8 79 1004.3 8.3 SE 9.2 0.8 2.1
22:15 5.1 1.8 79 1004.3 7.6 E 9.2 1.5 2.2
22:16 5.1 1.8 79 1004.2 6.9 E 9.2 1.5 2.2
22:17 5.1 1.8 79 1004.2 7.6 E 9.2 0.8 2.2
22:18 5.1 1.8 79 1004.2 9.8 SE 9.8 0.8 2.2
22:19 5.1 1.8 79 1004.0 9.2 E 9.8 1.5 2.3
22:21 5.2 2.0 80 1003.9 7.6 SE 9.8 1.5 2.3
22:22 5.2 2.0 80 1003.9 7.6 E 9.8 1.5 2.4
22:23 5.2 2.0 80 1004.1 6.9 E 9.8 2.3 2.4
22:24 5.2 2.0 80 1003.9 6.9 SE 9.8 2.3 2.5
22:25 5.2 2.0 80 1004.0 5.4 SE 9.8 2.3 2.5
22:26 5.2 2.0 80 1003.9 7.6 SE 9.8 1.5 2.5
22:27 5.2 2.0 80 1003.9 7.6 SE 9.8 1.5 2.5
22:28 5.2 2.0 80 1003.9 9.2 SE 9.2 1.5 2.5
22:29 5.2 2.0 80 1004.0 9.2 SE 9.2 0.8 2.5
22:30 5.2 2.0 80 1004.1 8.3 E 9.2 1.5 2.6
22:31 5.2 2.0 80 1003.9 8.3 E 9.2 1.5 2.6
22:32 5.3 2.1 80 1003.8 7.6 E 9.2 1.5 2.6
22:33 5.3 2.1 80 1004.0 12.1 SE 12.1 1.5 2.6
22:34 5.3 2.1 80 1004.0 7.6 SE 12.1 1.5 2.6
22:35 5.3 2.1 80 1003.8 7.6 SE 12.1 0.8 2.7
22:37 5.4 2.2 80 1003.8 8.3 SE 12.1 1.5 2.8
22:38 5.4 2.2 80 1003.7 9.8 SE 12.1 1.5 2.8
22:39 5.4 2.2 80 1003.7 9.2 SE 12.1 1.5 2.8
22:40 5.4 2.2 80 1003.7 10.7 SE 12.1 2.3 2.8
22:41 5.4 2.4 81 1003.6 10.7 S 13.0 1.5 2.8
22:42 5.4 2.4 81 1003.4 9.8 S 13.0 1.5 2.8
22:43 5.4 2.4 81 1003.4 9.8 S 13.0 0.8 2.8
22:44 5.4 2.4 81 1003.3 9.8 S 13.0 1.5 2.9
22:45 5.4 2.4 81 1003.3 9.2 E 13.0 1.5 3.0
22:46 5.5 2.5 81 1003.3 10.7 SE 13.0 1.5 3.0
22:47 5.4 2.4 81 1003.2 7.6 SE 13.0 2.3 3.0
22:48 5.5 2.5 81 1003.1 9.8 SE 13.0 3.0 3.1
22:49 5.4 2.4 81 1003.1 11.4 E 13.0 2.3 3.1
22:51 5.5 2.5 81 1003.2 11.4 SE 11.4 2.3 3.2
22:52 5.5 2.5 81 1003.0 9.2 SE 11.4 2.3 3.2
22:53 5.5 2.5 81 1002.9 9.8 SE 11.4 2.3 3.3
22:54 5.5 2.5 81 1002.8 5.4 S 11.4 2.3 3.3
22:55 5.5 2.5 81 1002.9 6.9 SE 11.4 2.3 3.3
22:56 5.5 2.5 81 1002.7 8.3 SE 11.4 3.0 3.4
22:57 5.5 2.5 81 1002.7 9.2 SE 11.4 3.0 3.5
22:58 5.5 2.5 81 1002.6 9.8 SE 11.4 2.3 3.5
22:59 5.5 2.5 81 1002.6 9.8 S 11.4 3.0 3.5
23:00 5.5 2.5 81 1002.4 9.8 SE 11.4 3.0 3.6
23:01 5.5 2.5 81 1002.4 9.8 SE 11.4 2.3 3.6
23:02 5.5 2.5 81 1002.4 9.8 SE 9.8 1.5 3.6
23:03 5.5 2.5 81 1002.3 9.8 SE 9.8 1.5 3.6
23:04 5.5 2.5 81 1002.3 9.8 SE 9.8 0.8 3.6
23:06 5.5 2.7 82 1002.1 9.8 ESE 9.8 6.8 4.2
23:07 5.6 2.6 81 1002.1 9.2 E 9.8 7.6 4.3
23:08 5.5 2.7 82 1002.1 7.6 S 9.8 9.1 4.3
23:09 5.6 2.8 82 1002.1 16.8 SE 16.8 9.8 4.5
23:10 5.6 2.8 82 1002.0 15.9 SE 16.8 10.6 4.5
23:11 5.5 2.7 82 1002.0 9.2 SE 16.8 4.5 4.6
23:12 5.5 2.7 82 1001.9 13.6 S 16.8 5.3 4.7
23:13 5.6 2.8 82 1001.8 8.3 E 16.8 4.5 4.7
23:14 5.6 2.8 82 1001.6 13.0 E 16.8 4.5 4.8
23:15 5.6 2.8 82 1001.5 11.4 SE 16.8 4.5 4.9
23:16 5.6 2.8 82 1001.5 13.6 SE 16.8 6.0 5.0
23:17 5.6 2.8 82 1001.4 14.5 SE 16.8 5.3 5.1
23:18 5.6 2.8 82 1001.4 13.6 SE 16.8 5.3 5.2
23:19 5.6 2.8 82 1001.2 12.1 SE 16.8 5.3 5.2
23:20 5.6 2.8 82 1001.2 14.5 SE 15.9 6.0 5.4
23:21 5.6 2.8 82 1001.2 13.0 SE 14.5 5.3 5.5
23:22 5.6 2.8 82 1001.1 7.6 SE 14.5 5.3 5.5
23:23 5.6 2.8 82 1000.9 9.8 SE 14.5 5.3 5.7
23:24 5.6 2.8 82 1001.1 9.2 SE 14.5 6.0 5.7
23:25 5.6 2.8 82 1001.0 9.2 E 14.5 4.5 5.8
23:26 5.6 2.8 82 1001.0 9.8 NE 14.5 3.8 5.8
23:27 5.7 2.9 82 1000.9 8.3 SE 14.5 3.0 5.9
23:28 5.6 2.8 82 1000.8 6.9 SE 14.5 3.8 5.9
23:29 5.7 2.9 82 1000.8 9.8 E 14.5 3.0 6.0
23:30 5.7 2.9 82 1000.8 9.8 E 14.5 3.0 6.0
23:31 5.7 2.9 82 1000.6 11.4 SE 13.0 3.0 6.0
23:32 5.7 2.9 82 1000.4 6.9 SE 11.4 4.5 6.2
23:33 5.7 2.9 82 1000.4 10.7 SE 11.4 3.8 6.2
23:34 5.7 2.9 82 1000.4 8.3 SE 11.4 3.0 6.2
23:35 5.7 2.9 82 1000.3 9.2 E 11.4 3.8 6.3
23:36 5.7 3.0 83 1000.2 9.2 SE 11.4 3.8 6.4
23:37 5.7 3.0 83 1000.3 8.3 SE 11.4 2.3 6.4
23:39 5.6 2.9 83 1000.1 7.6 E 12.1 1.5 6.4
23:40 5.6 2.9 83 1000.0 11.4 E 12.1 1.5 6.4
23:41 5.6 2.9 83 999.9 7.6 SE 12.1 0.8 6.4
23:42 5.6 2.9 83 999.8 6.0 E 12.1 0.8 6.5
23:43 5.6 2.9 83 999.7 6.0 E 12.1 1.5 6.5
23:44 5.6 2.9 83 999.6 6.0 SE 12.1 1.5 6.5
23:45 5.6 2.9 83 999.8 6.0 E 12.1 0.8 6.5
23:46 5.6 2.9 83 999.8 8.3 SE 12.1 0.8 6.5
23:47 5.6 2.9 83 999.6 8.3 SE 12.1 0.8 6.5
23:48 5.6 2.9 83 999.6 11.4 E 12.1 0.8 6.6
23:49 5.6 2.9 83 999.4 9.2 SW 11.4 1.5 6.6
23:50 5.6 2.9 83 999.5 6.0 E 11.4 1.5 6.6
23:51 5.6 2.9 83 999.4 10.7 E 11.4 1.5 6.6
23:52 5.6 2.9 83 999.3 6.9 E 11.4 2.3 6.7
23:54 5.6 2.9 83 999.4 5.4 SE 11.4 1.5 6.7
23:55 5.6 2.9 83 999.2 6.0 SE 11.4 1.5 6.8
23:56 5.6 2.9 83 999.2 5.4 SE 11.4 2.3 6.8
23:57 5.6 2.9 83 999.1 9.2 S 11.4 2.3 6.9
23:58 5.6 2.9 83 999.1 6.0 ESE 11.4 2.3 6.9
23:59 5.6 2.9 83 998.9 5.4 SE 10.7 2.3 7.0

 

 

UK - WEATHER STATION TOPSITES - UK World Weather Websites

Copyright © Carnkie Weather 2009 - 2020.